| time (UTC) | temp C | wind direction | speed KPH | gust KPH | rain 1hr cm | rain 24hr cm | rain mn cm | humidity % | barometer mb |
| 20260508100103 | 9 | 309 | 6.4 | 14.5 | 0.03 | 0.20 | 0.20 | 95 | 1010.6 |
| 20260508095903 | 9 | 319 | 6.4 | 14.5 | 0.03 | 0.20 | 0.20 | 95 | 1010.8 |
| 20260508095803 | 9 | 324 | 6.4 | 14.5 | 0.03 | 0.20 | 0.20 | 95 | 1010.8 |
| 20260508095703 | 9 | 327 | 6.4 | 12.9 | 0.03 | 0.20 | 0.20 | 95 | 1010.9 |
| 20260508095603 | 9 | 329 | 6.4 | 12.9 | 0.03 | 0.20 | 0.20 | 95 | 1010.7 |
| 20260508095503 | 9 | 326 | 6.4 | 12.9 | 0.03 | 0.20 | 0.20 | 96 | 1010.7 |
| 20260508095403 | 9 | 327 | 6.4 | 12.9 | 0.03 | 0.20 | 0.20 | 96 | 1010.8 |
| 20260508095306 | 9 | 330 | 6.4 | 12.9 | 0.03 | 0.20 | 0.20 | 96 | 1010.7 |
| 20260508095203 | 9 | 325 | 6.4 | 12.9 | 0.03 | 0.20 | 0.20 | 96 | 1010.6 |
| 20260508095103 | 9 | 324 | 6.4 | 12.9 | 0.03 | 0.20 | 0.20 | 96 | 1010.7 |
| 20260508095003 | 9 | 321 | 6.4 | 12.9 | 0.03 | 0.20 | 0.20 | 96 | 1010.7 |
| 20260508094903 | 9 | 318 | 4.8 | 12.9 | 0.03 | 0.20 | 0.20 | 96 | 1010.6 |
| 20260508094819 | 9 | 318 | 4.8 | 12.9 | 0.03 | 0.20 | 0.20 | 96 | 1010.7 |
| 20260508094803 | 9 | 316 | 4.8 | 12.9 | 0.03 | 0.20 | 0.20 | 95 | 1010.7 |
| 20260508094703 | 9 | 318 | 4.8 | 12.9 | 0.03 | 0.20 | 0.20 | 95 | 1010.7 |
| 20260508094503 | 9 | 324 | 4.8 | 12.9 | 0.03 | 0.20 | 0.20 | 95 | 1010.7 |
| 20260508094403 | 9 | 324 | 4.8 | 14.5 | 0.03 | 0.20 | 0.20 | 95 | 1010.7 |
| 20260508094303 | 9 | 322 | 6.4 | 14.5 | 0.03 | 0.20 | 0.20 | 95 | 1010.7 |
| 20260508094203 | 9 | 324 | 6.4 | 14.5 | 0.03 | 0.20 | 0.20 | 95 | 1010.9 |
| 20260508094103 | 9 | 328 | 6.4 | 14.5 | 0.03 | 0.20 | 0.20 | 95 | 1010.8 |
| 20260508094016 | 9 | 331 | 6.4 | 14.5 | 0.03 | 0.20 | 0.20 | 95 | 1010.7 |
| 20260508094003 | 9 | 331 | 6.4 | 14.5 | 0.03 | 0.20 | 0.20 | 95 | 1010.7 |
| 20260508093903 | 9 | 332 | 6.4 | 14.5 | 0.03 | 0.20 | 0.20 | 95 | 1010.7 |
| 20260508093703 | 9 | 335 | 8.0 | 14.5 | 0.05 | 0.20 | 0.20 | 95 | 1010.6 |
| 20260508093603 | 9 | 331 | 8.0 | 14.5 | 0.05 | 0.20 | 0.20 | 95 | 1010.6 |
| 20260508093503 | 9 | 332 | 8.0 | 14.5 | 0.05 | 0.20 | 0.20 | 96 | 1010.5 |
| 20260508093415 | 9 | 333 | 8.0 | 14.5 | 0.03 | 0.18 | 0.18 | 96 | 1010.7 |
| 20260508093403 | 9 | 332 | 8.0 | 14.5 | 0.03 | 0.18 | 0.18 | 96 | 1010.7 |
| 20260508093318 | 9 | 332 | 8.0 | 14.5 | 0.03 | 0.18 | 0.18 | 96 | 1010.8 |
| 20260508093303 | 9 | 332 | 8.0 | 14.5 | 0.03 | 0.18 | 0.18 | 96 | 1010.8 |
| 20260508093003 | 9 | 334 | 6.4 | 14.5 | 0.05 | 0.18 | 0.18 | 96 | 1010.5 |
| 20260508092917 | 9 | 336 | 6.4 | 14.5 | 0.05 | 0.18 | 0.18 | 96 | 1010.7 |
| 20260508092903 | 9 | 337 | 6.4 | 14.5 | 0.05 | 0.18 | 0.18 | 96 | 1010.7 |
| 20260508092803 | 9 | 334 | 6.4 | 14.5 | 0.05 | 0.18 | 0.18 | 96 | 1010.4 |
| 20260508092603 | 9 | 333 | 6.4 | 14.5 | 0.05 | 0.18 | 0.18 | 96 | 1010.6 |
| 20260508092503 | 9 | 330 | 6.4 | 14.5 | 0.05 | 0.18 | 0.18 | 96 | 1010.5 |
| 20260508092403 | 9 | 329 | 6.4 | 12.9 | 0.05 | 0.18 | 0.18 | 96 | 1010.7 |
| 20260508092316 | 9 | 328 | 6.4 | 12.9 | 0.05 | 0.18 | 0.18 | 96 | 1010.6 |
| 20260508092312 | 9 | 327 | 6.4 | 12.9 | 0.05 | 0.18 | 0.18 | 96 | 1010.6 |
| 20260508092117 | 9 | 321 | 6.4 | 14.5 | 0.05 | 0.18 | 0.18 | 96 | 1010.6 |
| 20260508092003 | 8 | 318 | 6.4 | 14.5 | 0.05 | 0.18 | 0.18 | 96 | 1010.7 |
| 20260508091803 | 8 | 314 | 6.4 | 17.7 | 0.05 | 0.18 | 0.18 | 96 | 1010.5 |
| 20260508091703 | 8 | 313 | 6.4 | 17.7 | 0.05 | 0.18 | 0.18 | 96 | 1010.5 |
| 20260508091603 | 8 | 311 | 6.4 | 17.7 | 0.08 | 0.18 | 0.18 | 96 | 1010.6 |
| 20260508091503 | 8 | 311 | 6.4 | 17.7 | 0.08 | 0.18 | 0.18 | 96 | 1010.5 |
| 20260508091419 | 8 | 311 | 6.4 | 17.7 | 0.05 | 0.18 | 0.18 | 96 | 1010.5 |
| 20260508091403 | 8 | 310 | 6.4 | 17.7 | 0.05 | 0.18 | 0.18 | 96 | 1010.5 |
| 20260508091303 | 8 | 312 | 6.4 | 17.7 | 0.05 | 0.18 | 0.18 | 96 | 1010.5 |
| 20260508091103 | 8 | 309 | 6.4 | 17.7 | 0.08 | 0.18 | 0.18 | 96 | 1010.5 |
| 20260508091003 | 8 | 309 | 6.4 | 17.7 | 0.08 | 0.18 | 0.18 | 96 | 1010.5 |
| 20260508090916 | 8 | 310 | 6.4 | 17.7 | 0.08 | 0.18 | 0.18 | 96 | 1010.7 |
| 20260508090903 | 8 | 311 | 6.4 | 17.7 | 0.08 | 0.18 | 0.18 | 96 | 1010.7 |
| 20260508090803 | 8 | 311 | 6.4 | 17.7 | 0.08 | 0.18 | 0.18 | 96 | 1010.5 |
| 20260508090603 | 8 | 312 | 8.0 | 17.7 | 0.08 | 0.18 | 0.18 | 96 | 1010.5 |
| 20260508090503 | 8 | 311 | 8.0 | 17.7 | 0.08 | 0.18 | 0.18 | 96 | 1010.4 |
| 20260508090403 | 8 | 310 | 8.0 | 17.7 | 0.08 | 0.18 | 0.18 | 96 | 1010.5 |
| 20260508090303 | 8 | 307 | 8.0 | 17.7 | 0.10 | 0.18 | 0.18 | 96 | 1010.4 |
| 20260508090203 | 8 | 306 | 8.0 | 17.7 | 0.10 | 0.18 | 0.18 | 96 | 1010.6 |
| 20260508090003 | 8 | 308 | 8.0 | 17.7 | 0.10 | 0.18 | 0.18 | 96 | 1010.6 |
| 20260508085903 | 8 | 304 | 9.7 | 17.7 | 0.10 | 0.18 | 0.18 | 96 | 1010.4 |
| 20260508085803 | 8 | 305 | 8.0 | 17.7 | 0.10 | 0.18 | 0.18 | 96 | 1010.6 |
| 20260508085703 | 8 | 307 | 8.0 | 17.7 | 0.10 | 0.18 | 0.18 | 96 | 1010.3 |
| 20260508085603 | 8 | 310 | 8.0 | 17.7 | 0.10 | 0.18 | 0.18 | 96 | 1010.3 |
| 20260508085403 | 8 | 312 | 8.0 | 17.7 | 0.10 | 0.18 | 0.18 | 96 | 1010.5 |
| 20260508085318 | 8 | 314 | 6.4 | 17.7 | 0.10 | 0.18 | 0.18 | 96 | 1010.4 |
| 20260508085306 | 8 | 313 | 6.4 | 17.7 | 0.10 | 0.18 | 0.18 | 96 | 1010.4 |
| 20260508085203 | 8 | 316 | 6.4 | 17.7 | 0.10 | 0.18 | 0.18 | 96 | 1010.5 |
| 20260508085003 | 9 | 319 | 4.8 | 14.5 | 0.10 | 0.18 | 0.18 | 96 | 1010.5 |
| 20260508084903 | 9 | 325 | 4.8 | 14.5 | 0.10 | 0.18 | 0.18 | 96 | 1010.6 |
| 20260508084803 | 9 | 328 | 4.8 | 14.5 | 0.10 | 0.18 | 0.18 | 96 | 1010.4 |
| 20260508084703 | 9 | 329 | 4.8 | 14.5 | 0.10 | 0.18 | 0.18 | 96 | 1010.6 |
| 20260508084603 | 9 | 328 | 4.8 | 12.9 | 0.10 | 0.18 | 0.18 | 96 | 1010.5 |
| 20260508084503 | 8 | 327 | 4.8 | 12.9 | 0.10 | 0.18 | 0.18 | 96 | 1010.5 |
| 20260508084403 | 8 | 329 | 4.8 | 12.9 | 0.10 | 0.18 | 0.18 | 96 | 1010.6 |
| 20260508084303 | 8 | 328 | 4.8 | 12.9 | 0.10 | 0.18 | 0.18 | 96 | 1010.5 |
| 20260508084203 | 8 | 326 | 4.8 | 12.9 | 0.10 | 0.18 | 0.18 | 96 | 1010.5 |
| 20260508084103 | 8 | 326 | 4.8 | 12.9 | 0.10 | 0.18 | 0.18 | 96 | 1010.6 |
| 20260508084016 | 8 | 326 | 4.8 | 12.9 | 0.10 | 0.18 | 0.18 | 95 | 1010.5 |
| 20260508084003 | 8 | 327 | 4.8 | 12.9 | 0.10 | 0.18 | 0.18 | 95 | 1010.5 |
| 20260508083918 | 8 | 327 | 4.8 | 12.9 | 0.10 | 0.18 | 0.18 | 96 | 1010.4 |
| 20260508083903 | 8 | 327 | 4.8 | 12.9 | 0.10 | 0.18 | 0.18 | 96 | 1010.4 |
| 20260508083719 | 8 | 328 | 4.8 | 12.9 | 0.10 | 0.15 | 0.15 | 96 | 1010.3 |
| 20260508083603 | 8 | 329 | 4.8 | 12.9 | 0.10 | 0.15 | 0.15 | 96 | 1010.4 |
| 20260508083403 | 8 | 331 | 4.8 | 12.9 | 0.10 | 0.15 | 0.15 | 96 | 1010.4 |
| 20260508083303 | 8 | 333 | 6.4 | 12.9 | 0.10 | 0.15 | 0.15 | 96 | 1010.2 |
| 20260508083203 | 8 | 334 | 6.4 | 16.1 | 0.10 | 0.15 | 0.15 | 96 | 1010.3 |
| 20260508083103 | 8 | 338 | 6.4 | 17.7 | 0.10 | 0.15 | 0.15 | 96 | 1010.3 |
| 20260508083003 | 8 | 339 | 6.4 | 17.7 | 0.10 | 0.15 | 0.15 | 96 | 1010.4 |
| 20260508082903 | 8 | 339 | 8.0 | 17.7 | 0.10 | 0.15 | 0.15 | 96 | 1010.3 |
| 20260508082803 | 8 | 337 | 8.0 | 17.7 | 0.10 | 0.15 | 0.15 | 96 | 1010.3 |
| 20260508082703 | 8 | 336 | 8.0 | 17.7 | 0.10 | 0.15 | 0.15 | 96 | 1010.3 |
| 20260508082603 | 8 | 335 | 8.0 | 17.7 | 0.10 | 0.15 | 0.15 | 96 | 1010.2 |
| 20260508082518 | 8 | 337 | 9.7 | 17.7 | 0.10 | 0.15 | 0.13 | 96 | 1010.3 |
| 20260508082503 | 8 | 336 | 9.7 | 17.7 | 0.10 | 0.15 | 0.13 | 96 | 1010.3 |
| 20260508082403 | 8 | 337 | 9.7 | 17.7 | 0.10 | 0.15 | 0.13 | 96 | 1010.2 |
| 20260508082316 | 8 | 339 | 8.0 | 17.7 | 0.10 | 0.15 | 0.13 | 96 | 1010.5 |
| 20260508082203 | 8 | 339 | 8.0 | 17.7 | 0.10 | 0.15 | 0.13 | 96 | 1010.4 |
| 20260508082015 | 8 | 335 | 9.7 | 17.7 | 0.10 | 0.13 | 0.13 | 96 | 1010.3 |
| 20260508082003 | 8 | 335 | 8.0 | 17.7 | 0.10 | 0.13 | 0.13 | 96 | 1010.3 |
| 20260508081903 | 8 | 334 | 8.0 | 17.7 | 0.10 | 0.13 | 0.13 | 96 | 1010.3 |
| 20260508081817 | 8 | 335 | 8.0 | 17.7 | 0.10 | 0.13 | 0.13 | 96 | 1010.2 |
| 20260508081703 | 8 | 336 | 9.7 | 17.7 | 0.10 | 0.13 | 0.13 | 96 | 1010.1 |
| 20260508081516 | 8 | 337 | 9.7 | 19.3 | 0.08 | 0.13 | 0.13 | 96 | 1010.1 |
| 20260508081503 | 8 | 338 | 9.7 | 19.3 | 0.08 | 0.13 | 0.13 | 96 | 1010.1 |
| 20260508081403 | 8 | 336 | 9.7 | 19.3 | 0.08 | 0.13 | 0.13 | 96 | 1009.9 |
| 20260508081203 | 8 | 333 | 9.7 | 19.3 | 0.10 | 0.13 | 0.13 | 96 | 1010.0 |
| 20260508081103 | 8 | 336 | 9.7 | 20.9 | 0.08 | 0.10 | 0.10 | 96 | 1010.2 |
| 20260508081003 | 8 | 337 | 9.7 | 20.9 | 0.08 | 0.10 | 0.10 | 96 | 1010.3 |
| 20260508080903 | 8 | 338 | 9.7 | 20.9 | 0.08 | 0.10 | 0.10 | 96 | 1010.2 |
| 20260508080803 | 8 | 338 | 9.7 | 20.9 | 0.08 | 0.10 | 0.10 | 96 | 1010.2 |
| 20260508080703 | 8 | 337 | 9.7 | 20.9 | 0.08 | 0.10 | 0.10 | 96 | 1010.1 |
| 20260508080603 | 8 | 334 | 9.7 | 20.9 | 0.08 | 0.10 | 0.10 | 96 | 1009.9 |
| 20260508080503 | 8 | 333 | 9.7 | 20.9 | 0.08 | 0.10 | 0.10 | 96 | 1010.2 |
| 20260508080403 | 8 | 334 | 9.7 | 20.9 | 0.08 | 0.10 | 0.10 | 96 | 1010.1 |
| 20260508080303 | 8 | 335 | 9.7 | 20.9 | 0.08 | 0.10 | 0.08 | 96 | 1010.1 |
| 20260508080203 | 8 | 335 | 9.7 | 20.9 | 0.08 | 0.10 | 0.08 | 96 | 1010.0 |
| 20260508080003 | 8 | 332 | 9.7 | 20.9 | 0.08 | 0.10 | 0.08 | 96 | 1010.0 |
| 20260508075903 | 8 | 330 | 9.7 | 17.7 | 0.08 | 0.08 | 0.08 | 96 | 1009.9 |
| 20260508075803 | 8 | 328 | 9.7 | 17.7 | 0.08 | 0.08 | 0.08 | 96 | 1010.1 |
| 20260508075703 | 8 | 326 | 9.7 | 17.7 | 0.08 | 0.08 | 0.08 | 96 | 1010.0 |
| 20260508075618 | 8 | 327 | 9.7 | 17.7 | 0.08 | 0.08 | 0.08 | 96 | 1010.0 |
| 20260508075603 | 8 | 328 | 9.7 | 17.7 | 0.08 | 0.08 | 0.08 | 96 | 1010.0 |
| 20260508075503 | 8 | 326 | 9.7 | 17.7 | 0.08 | 0.08 | 0.08 | 96 | 1009.9 |
| 20260508075308 | 8 | 323 | 9.7 | 16.1 | 0.08 | 0.08 | 0.08 | 96 | 1009.9 |
| 20260508075203 | 8 | 322 | 8.0 | 16.1 | 0.08 | 0.08 | 0.08 | 96 | 1010.0 |
| 20260508075103 | 8 | 323 | 8.0 | 16.1 | 0.08 | 0.08 | 0.08 | 96 | 1010.0 |
| 20260508075017 | 8 | 324 | 6.4 | 16.1 | 0.08 | 0.08 | 0.08 | 96 | 1009.9 |
| 20260508075003 | 8 | 323 | 6.4 | 16.1 | 0.08 | 0.08 | 0.08 | 96 | 1009.9 |
| 20260508074903 | 8 | 326 | 6.4 | 16.1 | 0.08 | 0.08 | 0.08 | 96 | 1009.9 |
| 20260508074703 | 8 | 330 | 6.4 | 14.5 | 0.08 | 0.08 | 0.08 | 96 | 1009.8 |
| 20260508074616 | 8 | 331 | 4.8 | 14.5 | 0.08 | 0.08 | 0.08 | 96 | 1009.9 |
| 20260508074603 | 8 | 330 | 4.8 | 14.5 | 0.08 | 0.08 | 0.08 | 96 | 1009.9 |
| 20260508074503 | 8 | 336 | 4.8 | 12.9 | 0.08 | 0.08 | 0.08 | 96 | 1009.8 |
| 20260508074303 | 8 | 339 | 4.8 | 12.9 | 0.05 | 0.05 | 0.05 | 96 | 1010.0 |
| 20260508074203 | 8 | 339 | 4.8 | 16.1 | 0.05 | 0.05 | 0.05 | 96 | 1009.9 |
| 20260508074103 | 8 | 339 | 4.8 | 16.1 | 0.05 | 0.05 | 0.05 | 96 | 1010.0 |
| 20260508074003 | 8 | 337 | 6.4 | 16.1 | 0.05 | 0.05 | 0.05 | 96 | 1010.1 |
| 20260508073903 | 8 | 340 | 6.4 | 16.1 | 0.05 | 0.05 | 0.05 | 96 | 1010.0 |
| 20260508073803 | 8 | 338 | 6.4 | 16.1 | 0.05 | 0.05 | 0.05 | 96 | 1010.1 |
| 20260508073719 | 8 | 338 | 6.4 | 16.1 | 0.05 | 0.05 | 0.05 | 96 | 1010.0 |
| 20260508073703 | 8 | 339 | 6.4 | 16.1 | 0.05 | 0.05 | 0.05 | 96 | 1010.0 |
| 20260508073603 | 8 | 337 | 6.4 | 16.1 | 0.05 | 0.05 | 0.05 | 96 | 1009.7 |
| 20260508073403 | 8 | 336 | 8.0 | 16.1 | 0.05 | 0.05 | 0.05 | 96 | 1009.7 |
| 20260508073303 | 8 | 337 | 9.7 | 16.1 | 0.05 | 0.05 | 0.05 | 96 | 1009.9 |
| 20260508073203 | 8 | 336 | 9.7 | 16.1 | 0.05 | 0.05 | 0.05 | 96 | 1010.1 |
| 20260508073103 | 8 | 335 | 8.0 | 16.1 | 0.05 | 0.05 | 0.05 | 96 | 1009.8 |
| 20260508073003 | 8 | 334 | 8.0 | 16.1 | 0.05 | 0.05 | 0.05 | 96 | 1009.9 |
| 20260508072903 | 8 | 333 | 8.0 | 16.1 | 0.05 | 0.05 | 0.05 | 96 | 1009.7 |
| 20260508072803 | 8 | 332 | 8.0 | 16.1 | 0.05 | 0.05 | 0.05 | 96 | 1009.7 |
| 20260508072703 | 8 | 331 | 8.0 | 16.1 | 0.05 | 0.05 | 0.05 | 96 | 1009.7 |
| 20260508072603 | 8 | 334 | 8.0 | 16.1 | 0.05 | 0.05 | 0.05 | 96 | 1009.7 |
| 20260508072503 | 8 | 335 | 8.0 | 17.7 | 0.05 | 0.05 | 0.05 | 96 | 1009.7 |
| 20260508072403 | 8 | 333 | 8.0 | 17.7 | 0.05 | 0.05 | 0.05 | 96 | 1009.8 |
| 20260508072319 | 8 | 333 | 8.0 | 17.7 | 0.05 | 0.05 | 0.05 | 96 | 1009.9 |
| 20260508072307 | 8 | 333 | 8.0 | 17.7 | 0.05 | 0.05 | 0.05 | 96 | 1009.9 |
| 20260508072203 | 8 | 333 | 6.4 | 17.7 | 0.05 | 0.05 | 0.05 | 96 | 1009.6 |
| 20260508072003 | 8 | 334 | 8.0 | 17.7 | 0.05 | 0.05 | 0.05 | 96 | 1009.8 |
| 20260508071903 | 8 | 333 | 8.0 | 17.7 | 0.05 | 0.05 | 0.05 | 96 | 1009.9 |
| 20260508071803 | 8 | 335 | 8.0 | 17.7 | 0.05 | 0.05 | 0.05 | 96 | 1009.8 |
| 20260508071703 | 8 | 331 | 8.0 | 17.7 | 0.05 | 0.05 | 0.05 | 96 | 1009.6 |
| 20260508071617 | 8 | 330 | 8.0 | 17.7 | 0.05 | 0.05 | 0.05 | 96 | 1009.7 |
| 20260508071603 | 8 | 329 | 8.0 | 17.7 | 0.05 | 0.05 | 0.05 | 96 | 1009.7 |
| 20260508071503 | 8 | 327 | 8.0 | 17.7 | 0.05 | 0.05 | 0.05 | 96 | 1009.8 |
| 20260508071303 | 8 | 328 | 6.4 | 14.5 | 0.03 | 0.03 | 0.03 | 96 | 1009.6 |
| 20260508071203 | 8 | 328 | 6.4 | 17.7 | 0.03 | 0.03 | 0.03 | 96 | 1009.8 |
| 20260508071103 | 8 | 327 | 6.4 | 17.7 | 0.03 | 0.03 | 0.03 | 96 | 1009.9 |
| 20260508071003 | 8 | 328 | 6.4 | 17.7 | 0.03 | 0.03 | 0.03 | 95 | 1009.7 |
| 20260508070903 | 8 | 328 | 6.4 | 17.7 | 0.03 | 0.03 | 0.03 | 95 | 1009.7 |
| 20260508070803 | 8 | 328 | 6.4 | 17.7 | 0.03 | 0.03 | 0.03 | 95 | 1009.8 |
| 20260508070703 | 8 | 331 | 6.4 | 17.7 | 0.03 | 0.03 | 0.03 | 95 | 1009.7 |
| 20260508070603 | 8 | 331 | 6.4 | 17.7 | 0.03 | 0.03 | 0.03 | 95 | 1009.7 |
| 20260508070503 | 8 | 331 | 6.4 | 17.7 | 0.03 | 0.03 | 0.03 | 95 | 1009.7 |
| 20260508070403 | 8 | 328 | 6.4 | 17.7 | 0.03 | 0.03 | 0.03 | 95 | 1009.8 |
| 20260508070303 | 8 | 330 | 6.4 | 17.7 | 0.00 | 0.00 | 0.00 | 95 | 1009.9 |
| 20260508070203 | 8 | 331 | 6.4 | 17.7 | 0.00 | 0.00 | 0.00 | 95 | 1009.7 |
| 20260508070003 | 8 | 332 | 6.4 | 14.5 | 0.00 | 0.00 | 0.00 | 95 | 1010.0 |
| 20260508065903 | 8 | 331 | 6.4 | 14.5 | 0.00 | 0.00 | 0.00 | 95 | 1009.6 |
| 20260508065803 | 8 | 332 | 6.4 | 14.5 | 0.00 | 0.00 | 0.00 | 95 | 1009.4 |
| 20260508065703 | 8 | 331 | 6.4 | 14.5 | 0.00 | 0.00 | 0.00 | 96 | 1009.8 |
| 20260508065603 | 8 | 329 | 6.4 | 14.5 | 0.00 | 0.00 | 0.00 | 95 | 1010.0 |
| 20260508065503 | 8 | 329 | 8.0 | 14.5 | 0.00 | 0.00 | 0.00 | 95 | 1009.8 |
| 20260508065403 | 8 | 329 | 8.0 | 14.5 | 0.00 | 0.00 | 0.00 | 95 | 1009.8 |
| 20260508065306 | 8 | 328 | 8.0 | 14.5 | 0.00 | 0.00 | 0.00 | 95 | 1009.7 |
| 20260508065203 | 8 | 328 | 6.4 | 14.5 | 0.00 | 0.00 | 0.00 | 95 | 1009.8 |
| 20260508065103 | 8 | 326 | 8.0 | 14.5 | 0.00 | 0.00 | 0.00 | 95 | 1009.9 |
| 20260508065003 | 8 | 327 | 8.0 | 14.5 | 0.00 | 0.00 | 0.00 | 95 | 1009.6 |
| 20260508064916 | 8 | 325 | 8.0 | 14.5 | 0.00 | 0.00 | 0.00 | 95 | 1009.6 |
| 20260508064903 | 8 | 324 | 8.0 | 14.5 | 0.00 | 0.00 | 0.00 | 95 | 1009.6 |
| 20260508064803 | 8 | 323 | 8.0 | 14.5 | 0.00 | 0.00 | 0.00 | 95 | 1009.7 |
| 20260508064603 | 8 | 331 | 8.0 | 16.1 | 0.00 | 0.00 | 0.00 | 95 | 1009.5 |
| 20260508064503 | 8 | 330 | 8.0 | 16.1 | 0.00 | 0.00 | 0.00 | 95 | 1009.7 |
| 20260508064403 | 8 | 332 | 8.0 | 16.1 | 0.00 | 0.00 | 0.00 | 95 | 1009.4 |
| 20260508064303 | 8 | 333 | 8.0 | 16.1 | 0.00 | 0.00 | 0.00 | 95 | 1009.6 |
| 20260508064203 | 8 | 333 | 8.0 | 16.1 | 0.00 | 0.00 | 0.00 | 95 | 1009.6 |
| 20260508064103 | 8 | 337 | 8.0 | 16.1 | 0.00 | 0.00 | 0.00 | 95 | 1009.6 |
| 20260508064019 | 8 | 337 | 8.0 | 16.1 | 0.00 | 0.00 | 0.00 | 95 | 1009.6 |
| 20260508064003 | 8 | 337 | 8.0 | 16.1 | 0.00 | 0.00 | 0.00 | 94 | 1009.6 |
| 20260508063903 | 8 | 338 | 8.0 | 16.1 | 0.00 | 0.00 | 0.00 | 95 | 1009.8 |
| 20260508063703 | 8 | 336 | 8.0 | 16.1 | 0.00 | 0.00 | 0.00 | 94 | 1009.7 |
| 20260508063603 | 8 | 335 | 6.4 | 17.7 | 0.00 | 0.00 | 0.00 | 94 | 1009.6 |
| 20260508063503 | 8 | 335 | 6.4 | 17.7 | 0.00 | 0.00 | 0.00 | 94 | 1009.6 |
| 20260508063403 | 8 | 333 | 8.0 | 17.7 | 0.00 | 0.00 | 0.00 | 94 | 1009.6 |
| 20260508063303 | 8 | 334 | 8.0 | 17.7 | 0.00 | 0.00 | 0.00 | 94 | 1009.8 |
| 20260508063203 | 8 | 332 | 8.0 | 17.7 | 0.00 | 0.00 | 0.00 | 94 | 1009.6 |
| 20260508063119 | 8 | 329 | 8.0 | 17.7 | 0.00 | 0.00 | 0.00 | 94 | 1009.5 |
| 20260508063103 | 8 | 329 | 8.0 | 17.7 | 0.00 | 0.00 | 0.00 | 94 | 1009.5 |
| 20260508063003 | 8 | 327 | 8.0 | 17.7 | 0.00 | 0.00 | 0.00 | 94 | 1009.4 |
| 20260508062803 | 8 | 327 | 9.7 | 17.7 | 0.00 | 0.00 | 0.00 | 94 | 1009.5 |
| 20260508062716 | 8 | 326 | 9.7 | 17.7 | 0.00 | 0.00 | 0.00 | 94 | 1009.4 |
| 20260508062703 | 8 | 325 | 9.7 | 17.7 | 0.00 | 0.00 | 0.00 | 94 | 1009.4 |
| 20260508062603 | 8 | 323 | 9.7 | 17.7 | 0.00 | 0.00 | 0.00 | 94 | 1009.4 |
| 20260508062416 | 8 | 327 | 8.0 | 17.7 | 0.00 | 0.00 | 0.00 | 94 | 1009.5 |
| 20260508062403 | 8 | 328 | 8.0 | 16.1 | 0.00 | 0.00 | 0.00 | 94 | 1009.5 |
| 20260508062306 | 8 | 329 | 8.0 | 16.1 | 0.00 | 0.00 | 0.00 | 94 | 1009.5 |
| 20260508062103 | 8 | 333 | 8.0 | 19.3 | 0.00 | 0.00 | 0.00 | 94 | 1009.5 |
| 20260508062003 | 8 | 334 | 8.0 | 19.3 | 0.00 | 0.00 | 0.00 | 94 | 1009.3 |
| 20260508061903 | 8 | 333 | 8.0 | 19.3 | 0.00 | 0.00 | 0.00 | 94 | 1009.5 |
| 20260508061803 | 8 | 333 | 8.0 | 19.3 | 0.00 | 0.00 | 0.00 | 94 | 1009.3 |
| 20260508061703 | 8 | 333 | 8.0 | 20.9 | 0.00 | 0.00 | 0.00 | 94 | 1009.5 |
| 20260508061603 | 8 | 332 | 8.0 | 20.9 | 0.00 | 0.00 | 0.00 | 94 | 1009.3 |
| 20260508061503 | 8 | 333 | 8.0 | 20.9 | 0.00 | 0.00 | 0.00 | 94 | 1009.3 |
| 20260508061403 | 8 | 331 | 9.7 | 20.9 | 0.00 | 0.00 | 0.00 | 93 | 1009.3 |
| 20260508061203 | 8 | 330 | 9.7 | 20.9 | 0.00 | 0.00 | 0.00 | 93 | 1009.5 |
| 20260508061103 | 8 | 329 | 9.7 | 20.9 | 0.00 | 0.00 | 0.00 | 93 | 1009.3 |
| 20260508061003 | 8 | 332 | 9.7 | 20.9 | 0.00 | 0.00 | 0.00 | 93 | 1009.3 |
| 20260508060919 | 8 | 332 | 9.7 | 20.9 | 0.00 | 0.00 | 0.00 | 93 | 1009.4 |
| 20260508060903 | 8 | 333 | 9.7 | 20.9 | 0.00 | 0.00 | 0.00 | 93 | 1009.4 |
| 20260508060803 | 8 | 334 | 9.7 | 20.9 | 0.00 | 0.00 | 0.00 | 94 | 1009.3 |
| 20260508060619 | 8 | 339 | 9.7 | 20.9 | 0.00 | 0.00 | 0.00 | 93 | 1009.2 |
| 20260508060603 | 8 | 340 | 9.7 | 20.9 | 0.00 | 0.00 | 0.00 | 93 | 1009.2 |
| 20260508060509 | 8 | 337 | 9.7 | 17.7 | 0.00 | 0.00 | 0.00 | 93 | 1009.5 |
| 20260508060303 | 8 | 338 | 9.7 | 16.1 | 0.00 | 0.00 | 0.00 | 93 | 1009.1 |
| 20260508060203 | 8 | 338 | 9.7 | 16.1 | 0.00 | 0.00 | 0.00 | 93 | 1009.4 |
| 20260508060120 | 8 | 339 | 9.7 | 16.1 | 0.00 | 0.00 | 0.00 | 93 | 1009.3 |
| 20260508060003 | 8 | 336 | 9.7 | 16.1 | 0.00 | 0.00 | 0.00 | 93 | 1009.3 |
| 20260508055803 | 8 | 339 | 9.7 | 16.1 | 0.00 | 0.00 | 0.00 | 93 | 1009.1 |
| 20260508055703 | 8 | 337 | 9.7 | 16.1 | 0.00 | 0.00 | 0.00 | 93 | 1009.3 |
| 20260508055603 | 8 | 337 | 9.7 | 16.1 | 0.00 | 0.00 | 0.00 | 93 | 1009.4 |
| 20260508055503 | 8 | 338 | 8.0 | 16.1 | 0.00 | 0.00 | 0.00 | 93 | 1009.2 |
| 20260508055403 | 8 | 336 | 8.0 | 16.1 | 0.00 | 0.00 | 0.00 | 93 | 1009.2 |
| 20260508055306 | 8 | 334 | 8.0 | 16.1 | 0.00 | 0.00 | 0.00 | 93 | 1009.2 |
| 20260508055219 | 8 | 333 | 8.0 | 16.1 | 0.00 | 0.00 | 0.00 | 93 | 1009.3 |
| 20260508055203 | 8 | 333 | 8.0 | 16.1 | 0.00 | 0.00 | 0.00 | 93 | 1009.3 |
| 20260508055103 | 8 | 333 | 8.0 | 16.1 | 0.00 | 0.00 | 0.00 | 93 | 1009.2 |
| 20260508054903 | 8 | 333 | 8.0 | 14.5 | 0.00 | 0.00 | 0.00 | 93 | 1009.1 |
| 20260508054818 | 8 | 332 | 8.0 | 17.7 | 0.00 | 0.00 | 0.00 | 93 | 1009.1 |
| 20260508054803 | 8 | 331 | 8.0 | 17.7 | 0.00 | 0.00 | 0.00 | 93 | 1009.1 |
| 20260508054703 | 8 | 330 | 8.0 | 17.7 | 0.00 | 0.00 | 0.00 | 93 | 1009.3 |
| 20260508054503 | 8 | 330 | 8.0 | 17.7 | 0.00 | 0.00 | 0.00 | 93 | 1009.3 |
| 20260508054403 | 8 | 330 | 8.0 | 17.7 | 0.00 | 0.00 | 0.00 | 93 | 1009.2 |
| 20260508054303 | 8 | 331 | 8.0 | 17.7 | 0.00 | 0.00 | 0.00 | 93 | 1009.4 |
| 20260508054203 | 8 | 330 | 9.7 | 17.7 | 0.00 | 0.00 | 0.00 | 93 | 1009.1 |
| 20260508054103 | 8 | 331 | 8.0 | 17.7 | 0.00 | 0.00 | 0.00 | 93 | 1009.1 |
| 20260508054003 | 8 | 330 | 8.0 | 17.7 | 0.00 | 0.00 | 0.00 | 93 | 1009.1 |
| 20260508053903 | 8 | 331 | 8.0 | 17.7 | 0.00 | 0.00 | 0.00 | 93 | 1009.3 |
| 20260508053803 | 8 | 332 | 8.0 | 17.7 | 0.00 | 0.00 | 0.00 | 93 | 1009.2 |
| 20260508053703 | 8 | 335 | 8.0 | 17.7 | 0.00 | 0.00 | 0.00 | 93 | 1009.0 |
| 20260508053603 | 8 | 336 | 8.0 | 16.1 | 0.00 | 0.00 | 0.00 | 93 | 1009.2 |
| 20260508053503 | 8 | 337 | 8.0 | 16.1 | 0.00 | 0.00 | 0.00 | 93 | 1009.3 |
| 20260508053418 | 8 | 337 | 8.0 | 16.1 | 0.00 | 0.00 | 0.00 | 93 | 1009.2 |
| 20260508053403 | 8 | 338 | 8.0 | 16.1 | 0.00 | 0.00 | 0.00 | 93 | 1009.2 |
| 20260508053303 | 8 | 337 | 8.0 | 16.1 | 0.00 | 0.00 | 0.00 | 93 | 1009.2 |
| 20260508053219 | 8 | 338 | 8.0 | 16.1 | 0.00 | 0.00 | 0.00 | 93 | 1009.2 |
| 20260508053103 | 8 | 338 | 8.0 | 16.1 | 0.00 | 0.00 | 0.00 | 93 | 1009.2 |
| 20260508052903 | 8 | 335 | 8.0 | 16.1 | 0.00 | 0.00 | 0.00 | 93 | 1009.1 |
| 20260508052803 | 8 | 335 | 8.0 | 16.1 | 0.00 | 0.00 | 0.00 | 93 | 1009.1 |
| 20260508052703 | 8 | 332 | 8.0 | 16.1 | 0.00 | 0.00 | 0.00 | 93 | 1009.2 |
| 20260508052603 | 8 | 332 | 8.0 | 16.1 | 0.00 | 0.00 | 0.00 | 93 | 1009.2 |
| 20260508052503 | 8 | 332 | 8.0 | 16.1 | 0.00 | 0.00 | 0.00 | 93 | 1009.0 |
| 20260508052403 | 8 | 334 | 8.0 | 16.1 | 0.00 | 0.00 | 0.00 | 93 | 1009.3 |
| 20260508052306 | 8 | 336 | 8.0 | 16.1 | 0.00 | 0.00 | 0.00 | 93 | 1009.0 |
| 20260508052203 | 8 | 336 | 8.0 | 16.1 | 0.00 | 0.00 | 0.00 | 93 | 1009.2 |
| 20260508052103 | 8 | 336 | 8.0 | 16.1 | 0.00 | 0.00 | 0.00 | 93 | 1009.1 |
| 20260508052003 | 8 | 339 | 8.0 | 17.7 | 0.00 | 0.00 | 0.00 | 93 | 1009.1 |
| 20260508051803 | 8 | 336 | 8.0 | 17.7 | 0.00 | 0.00 | 0.00 | 93 | 1009.2 |
| 20260508051703 | 8 | 336 | 8.0 | 17.7 | 0.00 | 0.00 | 0.00 | 93 | 1009.2 |
| 20260508051617 | 8 | 336 | 8.0 | 17.7 | 0.00 | 0.00 | 0.00 | 93 | 1009.2 |
| 20260508051603 | 8 | 336 | 8.0 | 17.7 | 0.00 | 0.00 | 0.00 | 93 | 1009.2 |
| 20260508051503 | 8 | 335 | 8.0 | 17.7 | 0.00 | 0.00 | 0.00 | 93 | 1009.3 |
| 20260508051303 | 8 | 334 | 8.0 | 17.7 | 0.00 | 0.00 | 0.00 | 94 | 1009.1 |
| 20260508051203 | 8 | 333 | 8.0 | 17.7 | 0.00 | 0.00 | 0.00 | 94 | 1009.1 |
| 20260508051103 | 8 | 334 | 8.0 | 17.7 | 0.00 | 0.00 | 0.00 | 94 | 1009.0 |
| 20260508050919 | 8 | 336 | 8.0 | 17.7 | 0.00 | 0.00 | 0.00 | 94 | 1009.1 |
| 20260508050903 | 8 | 338 | 8.0 | 17.7 | 0.00 | 0.00 | 0.00 | 94 | 1009.1 |
| 20260508050803 | 8 | 339 | 6.4 | 17.7 | 0.00 | 0.00 | 0.00 | 94 | 1009.1 |
| 20260508050603 | 8 | 340 | 6.4 | 11.3 | 0.00 | 0.00 | 0.00 | 94 | 1009.2 |
| 20260508050503 | 8 | 339 | 6.4 | 11.3 | 0.00 | 0.00 | 0.00 | 94 | 1009.0 |
| 20260508050403 | 8 | 340 | 6.4 | 12.9 | 0.00 | 0.00 | 0.00 | 93 | 1009.2 |
| 20260508050303 | 8 | 339 | 6.4 | 12.9 | 0.00 | 0.00 | 0.00 | 93 | 1009.2 |
| 20260508050203 | 8 | 340 | 6.4 | 16.1 | 0.00 | 0.00 | 0.00 | 93 | 1009.1 |
| 20260508050103 | 8 | 336 | 8.0 | 16.1 | 0.00 | 0.00 | 0.00 | 94 | 1009.1 |
| 20260508050003 | 8 | 333 | 8.0 | 16.1 | 0.00 | 0.00 | 0.00 | 94 | 1009.0 |
| 20260508045903 | 8 | 331 | 8.0 | 16.1 | 0.00 | 0.00 | 0.00 | 94 | 1009.0 |
| 20260508045803 | 8 | 330 | 8.0 | 16.1 | 0.00 | 0.00 | 0.00 | 94 | 1009.4 |
| 20260508045718 | 8 | 331 | 8.0 | 16.1 | 0.00 | 0.00 | 0.00 | 94 | 1009.1 |
| 20260508045703 | 8 | 330 | 8.0 | 16.1 | 0.00 | 0.00 | 0.00 | 94 | 1009.1 |
| 20260508045616 | 8 | 329 | 8.0 | 16.1 | 0.00 | 0.00 | 0.00 | 94 | 1009.2 |
| 20260508045603 | 8 | 329 | 8.0 | 16.1 | 0.00 | 0.00 | 0.00 | 94 | 1009.2 |
| 20260508045306 | 8 | 322 | 8.0 | 16.1 | 0.00 | 0.00 | 0.00 | 94 | 1009.1 |
| 20260508045203 | 8 | 320 | 8.0 | 16.1 | 0.00 | 0.00 | 0.00 | 94 | 1009.1 |
| 20260508045103 | 8 | 321 | 8.0 | 16.1 | 0.00 | 0.00 | 0.00 | 94 | 1009.0 |
| 20260508045003 | 8 | 322 | 6.4 | 14.5 | 0.00 | 0.00 | 0.00 | 94 | 1009.0 |
| 20260508044903 | 8 | 320 | 6.4 | 14.5 | 0.00 | 0.00 | 0.00 | 93 | 1009.1 |
| 20260508044803 | 8 | 320 | 6.4 | 14.5 | 0.00 | 0.00 | 0.00 | 94 | 1009.1 |
| 20260508044603 | 8 | 323 | 6.4 | 14.5 | 0.00 | 0.00 | 0.00 | 93 | 1009.2 |
| 20260508044503 | 8 | 326 | 6.4 | 14.5 | 0.00 | 0.00 | 0.00 | 93 | 1009.2 |
| 20260508044416 | 8 | 329 | 6.4 | 14.5 | 0.00 | 0.00 | 0.00 | 93 | 1009.1 |
| 20260508044403 | 8 | 329 | 6.4 | 14.5 | 0.00 | 0.00 | 0.00 | 93 | 1009.1 |
| 20260508044319 | 8 | 331 | 6.4 | 14.5 | 0.00 | 0.00 | 0.00 | 93 | 1009.2 |
| 20260508044303 | 8 | 330 | 6.4 | 14.5 | 0.00 | 0.00 | 0.00 | 93 | 1009.2 |
| 20260508044115 | 8 | 328 | 6.4 | 20.9 | 0.00 | 0.00 | 0.00 | 93 | 1009.2 |
| 20260508044003 | 8 | 332 | 6.4 | 20.9 | 0.00 | 0.00 | 0.00 | 93 | 1009.1 |
| 20260508043804 | 8 | 333 | 8.0 | 20.9 | 0.00 | 0.00 | 0.00 | 93 | 1009.2 |
| 20260508043718 | 8 | 335 | 8.0 | 20.9 | 0.00 | 0.00 | 0.00 | 93 | 1009.1 |
| 20260508043703 | 8 | 334 | 8.0 | 20.9 | 0.00 | 0.00 | 0.00 | 93 | 1009.1 |
| 20260508043603 | 8 | 331 | 8.0 | 20.9 | 0.00 | 0.00 | 0.00 | 93 | 1009.2 |
| 20260508043519 | 8 | 330 | 8.0 | 20.9 | 0.00 | 0.00 | 0.00 | 93 | 1009.3 |
| 20260508043316 | 8 | 331 | 8.0 | 20.9 | 0.00 | 0.00 | 0.00 | 93 | 1009.1 |
| 20260508043203 | 8 | 333 | 8.0 | 20.9 | 0.00 | 0.00 | 0.00 | 93 | 1009.2 |
| 20260508043003 | 8 | 332 | 8.0 | 20.9 | 0.00 | 0.00 | 0.00 | 93 | 1009.2 |
| 20260508042903 | 8 | 333 | 8.0 | 16.1 | 0.00 | 0.00 | 0.00 | 93 | 1009.1 |
| 20260508042803 | 8 | 335 | 6.4 | 16.1 | 0.00 | 0.00 | 0.00 | 93 | 1009.2 |
| 20260508042703 | 8 | 335 | 6.4 | 14.5 | 0.00 | 0.00 | 0.00 | 93 | 1009.0 |
| 20260508042503 | 8 | 337 | 6.4 | 14.5 | 0.00 | 0.00 | 0.00 | 93 | 1009.1 |
| 20260508042403 | 8 | 335 | 6.4 | 17.7 | 0.00 | 0.00 | 0.00 | 93 | 1009.1 |
| 20260508042318 | 8 | 336 | 6.4 | 17.7 | 0.00 | 0.00 | 0.00 | 93 | 1009.2 |
| 20260508042203 | 8 | 336 | 6.4 | 17.7 | 0.00 | 0.00 | 0.00 | 93 | 1009.0 |
| 20260508042003 | 8 | 334 | 6.4 | 17.7 | 0.00 | 0.00 | 0.00 | 93 | 1009.0 |
| 20260508041903 | 8 | 333 | 6.4 | 17.7 | 0.00 | 0.00 | 0.00 | 93 | 1009.1 |
| 20260508041803 | 8 | 331 | 6.4 | 17.7 | 0.00 | 0.00 | 0.00 | 93 | 1009.2 |
| 20260508041703 | 8 | 330 | 8.0 | 17.7 | 0.00 | 0.00 | 0.00 | 93 | 1009.1 |
| 20260508041603 | 8 | 332 | 6.4 | 17.7 | 0.00 | 0.00 | 0.00 | 93 | 1009.0 |
| 20260508041504 | 8 | 334 | 6.4 | 17.7 | 0.00 | 0.00 | 0.00 | 93 | 1009.0 |
| 20260508041418 | 8 | 335 | 6.4 | 17.7 | 0.00 | 0.00 | 0.00 | 93 | 1008.9 |
| 20260508041403 | 8 | 334 | 6.4 | 17.7 | 0.00 | 0.00 | 0.00 | 93 | 1008.9 |
| 20260508041303 | 8 | 334 | 8.0 | 17.7 | 0.00 | 0.00 | 0.00 | 93 | 1009.2 |
| 20260508041103 | 8 | 338 | 6.4 | 14.5 | 0.00 | 0.00 | 0.00 | 93 | 1009.1 |
| 20260508041016 | 8 | 340 | 6.4 | 14.5 | 0.00 | 0.00 | 0.00 | 93 | 1009.2 |
| 20260508041003 | 8 | 339 | 6.4 | 14.5 | 0.00 | 0.00 | 0.00 | 93 | 1009.2 |
| 20260508040918 | 8 | 342 | 6.4 | 14.5 | 0.00 | 0.00 | 0.00 | 93 | 1009.1 |
| 20260508040903 | 8 | 342 | 6.4 | 14.5 | 0.00 | 0.00 | 0.00 | 93 | 1009.1 |
| 20260508040603 | 8 | 344 | 8.0 | 25.7 | 0.00 | 0.00 | 0.00 | 93 | 1009.0 |
| 20260508040503 | 8 | 342 | 8.0 | 25.7 | 0.00 | 0.00 | 0.00 | 93 | 1009.0 |
| 20260508040403 | 8 | 342 | 9.7 | 25.7 | 0.00 | 0.00 | 0.00 | 93 | 1009.0 |
| 20260508040303 | 8 | 340 | 9.7 | 25.7 | 0.00 | 0.00 | 0.00 | 93 | 1009.0 |
| 20260508040203 | 8 | 338 | 9.7 | 25.7 | 0.00 | 0.00 | 0.00 | 93 | 1008.9 |
| 20260508040119 | 8 | 336 | 9.7 | 25.7 | 0.00 | 0.00 | 0.00 | 93 | 1009.0 |
| 20260508040003 | 8 | 335 | 9.7 | 25.7 | 0.00 | 0.00 | 0.00 | 93 | 1009.0 |
| 20260508035803 | 8 | 335 | 9.7 | 25.7 | 0.00 | 0.00 | 0.00 | 93 | 1008.8 |
| 20260508035703 | 8 | 334 | 9.7 | 25.7 | 0.00 | 0.00 | 0.00 | 93 | 1009.0 |
| 20260508035616 | 8 | 333 | 9.7 | 25.7 | 0.00 | 0.00 | 0.00 | 93 | 1009.0 |
| 20260508035603 | 8 | 334 | 9.7 | 25.7 | 0.00 | 0.00 | 0.00 | 93 | 1009.0 |
| 20260508035503 | 8 | 337 | 8.0 | 20.9 | 0.00 | 0.00 | 0.00 | 93 | 1008.9 |
| 20260508035306 | 8 | 342 | 9.7 | 19.3 | 0.00 | 0.00 | 0.00 | 93 | 1009.0 |
| 20260508035203 | 8 | 344 | 9.7 | 19.3 | 0.00 | 0.00 | 0.00 | 93 | 1009.0 |
| 20260508035103 | 8 | 345 | 9.7 | 19.3 | 0.00 | 0.00 | 0.00 | 93 | 1009.0 |
| 20260508035003 | 8 | 344 | 9.7 | 19.3 | 0.00 | 0.00 | 0.00 | 93 | 1009.1 |
| 20260508034903 | 8 | 343 | 9.7 | 19.3 | 0.00 | 0.00 | 0.00 | 92 | 1008.9 |
| 20260508034803 | 8 | 343 | 9.7 | 19.3 | 0.00 | 0.00 | 0.00 | 92 | 1008.9 |
| 20260508034703 | 8 | 341 | 9.7 | 19.3 | 0.00 | 0.00 | 0.00 | 92 | 1008.7 |
| 20260508034603 | 8 | 338 | 11.3 | 19.3 | 0.00 | 0.00 | 0.00 | 93 | 1009.1 |
| 20260508034517 | 8 | 337 | 11.3 | 19.3 | 0.00 | 0.00 | 0.00 | 93 | 1009.0 |
| 20260508034503 | 8 | 336 | 9.7 | 19.3 | 0.00 | 0.00 | 0.00 | 93 | 1009.0 |
| 20260508034403 | 8 | 335 | 9.7 | 19.3 | 0.00 | 0.00 | 0.00 | 93 | 1008.9 |
| 20260508034203 | 8 | 330 | 9.7 | 19.3 | 0.00 | 0.00 | 0.00 | 93 | 1008.9 |
| 20260508034119 | 8 | 330 | 9.7 | 19.3 | 0.00 | 0.00 | 0.00 | 93 | 1008.8 |
| 20260508034103 | 8 | 329 | 9.7 | 19.3 | 0.00 | 0.00 | 0.00 | 93 | 1008.8 |
| 20260508034003 | 8 | 328 | 9.7 | 19.3 | 0.00 | 0.00 | 0.00 | 93 | 1008.7 |
| 20260508033916 | 8 | 328 | 9.7 | 19.3 | 0.00 | 0.00 | 0.00 | 93 | 1009.0 |
| 20260508033803 | 8 | 325 | 9.7 | 19.3 | 0.00 | 0.00 | 0.00 | 93 | 1008.9 |
| 20260508033616 | 8 | 325 | 9.7 | 19.3 | 0.00 | 0.00 | 0.00 | 93 | 1008.7 |
| 20260508033603 | 8 | 324 | 9.7 | 19.3 | 0.00 | 0.00 | 0.00 | 93 | 1008.7 |
| 20260508033503 | 8 | 326 | 9.7 | 19.3 | 0.00 | 0.00 | 0.00 | 93 | 1008.8 |
| 20260508033417 | 8 | 327 | 9.7 | 19.3 | 0.00 | 0.00 | 0.00 | 93 | 1008.8 |
| 20260508033303 | 8 | 330 | 8.0 | 17.7 | 0.00 | 0.00 | 0.00 | 93 | 1008.7 |
| 20260508033103 | 8 | 332 | 8.0 | 16.1 | 0.00 | 0.00 | 0.00 | 93 | 1008.8 |
| 20260508033003 | 8 | 333 | 8.0 | 16.1 | 0.00 | 0.00 | 0.00 | 93 | 1008.7 |
| 20260508032903 | 8 | 336 | 8.0 | 16.1 | 0.00 | 0.00 | 0.00 | 93 | 1008.8 |
| 20260508032803 | 8 | 339 | 8.0 | 16.1 | 0.00 | 0.00 | 0.00 | 93 | 1008.8 |
| 20260508032703 | 8 | 338 | 8.0 | 16.1 | 0.00 | 0.00 | 0.00 | 93 | 1008.7 |
| 20260508032603 | 8 | 341 | 8.0 | 16.1 | 0.00 | 0.00 | 0.00 | 93 | 1008.9 |
| 20260508032503 | 8 | 338 | 8.0 | 16.1 | 0.00 | 0.00 | 0.00 | 93 | 1008.9 |
| 20260508032403 | 8 | 332 | 8.0 | 20.9 | 0.00 | 0.00 | 0.00 | 93 | 1008.8 |
| 20260508032306 | 8 | 328 | 8.0 | 20.9 | 0.00 | 0.00 | 0.00 | 93 | 1008.9 |
| 20260508032203 | 8 | 328 | 9.7 | 20.9 | 0.00 | 0.00 | 0.00 | 93 | 1008.9 |
| 20260508032103 | 8 | 328 | 9.7 | 20.9 | 0.00 | 0.00 | 0.00 | 93 | 1008.8 |
| 20260508032003 | 8 | 328 | 8.0 | 20.9 | 0.00 | 0.00 | 0.00 | 92 | 1008.8 |
| 20260508031916 | 8 | 327 | 8.0 | 20.9 | 0.00 | 0.00 | 0.00 | 92 | 1008.9 |
| 20260508031903 | 8 | 326 | 8.0 | 20.9 | 0.00 | 0.00 | 0.00 | 92 | 1008.9 |
| 20260508031603 | 8 | 325 | 8.0 | 20.9 | 0.00 | 0.00 | 0.00 | 92 | 1008.6 |
| 20260508031503 | 8 | 324 | 8.0 | 20.9 | 0.00 | 0.00 | 0.00 | 92 | 1008.8 |
| 20260508031403 | 8 | 327 | 8.0 | 20.9 | 0.00 | 0.00 | 0.00 | 92 | 1009.1 |
| 20260508031303 | 8 | 331 | 8.0 | 20.9 | 0.00 | 0.00 | 0.00 | 92 | 1008.9 |
| 20260508031203 | 8 | 328 | 8.0 | 17.7 | 0.00 | 0.00 | 0.00 | 92 | 1008.7 |
| 20260508031117 | 8 | 325 | 6.4 | 17.7 | 0.00 | 0.00 | 0.00 | 92 | 1008.9 |
| 20260508030803 | 8 | 321 | 8.0 | 17.7 | 0.00 | 0.00 | 0.00 | 91 | 1009.0 |
| 20260508030703 | 8 | 319 | 8.0 | 17.7 | 0.00 | 0.00 | 0.00 | 91 | 1008.7 |
| 20260508030603 | 8 | 321 | 8.0 | 16.1 | 0.00 | 0.00 | 0.00 | 91 | 1008.9 |
| 20260508030503 | 8 | 322 | 8.0 | 16.1 | 0.00 | 0.00 | 0.00 | 91 | 1009.0 |
| 20260508030403 | 8 | 319 | 8.0 | 16.1 | 0.00 | 0.00 | 0.00 | 91 | 1008.9 |
| 20260508030303 | 8 | 318 | 8.0 | 16.1 | 0.00 | 0.00 | 0.00 | 91 | 1009.0 |
| 20260508030203 | 8 | 321 | 8.0 | 16.1 | 0.00 | 0.00 | 0.00 | 91 | 1008.9 |
| 20260508030103 | 8 | 323 | 8.0 | 16.1 | 0.00 | 0.00 | 0.00 | 91 | 1008.9 |
| 20260508030003 | 8 | 327 | 8.0 | 16.1 | 0.00 | 0.00 | 0.00 | 91 | 1008.7 |
| 20260508025903 | 8 | 328 | 8.0 | 14.5 | 0.00 | 0.00 | 0.00 | 91 | 1008.9 |
| 20260508025819 | 8 | 329 | 8.0 | 14.5 | 0.00 | 0.00 | 0.00 | 91 | 1008.8 |
| 20260508025803 | 8 | 330 | 8.0 | 14.5 | 0.00 | 0.00 | 0.00 | 91 | 1008.8 |
| 20260508025703 | 8 | 331 | 8.0 | 14.5 | 0.00 | 0.00 | 0.00 | 91 | 1008.9 |
| 20260508025503 | 8 | 336 | 8.0 | 14.5 | 0.00 | 0.00 | 0.00 | 91 | 1008.8 |
| 20260508025403 | 8 | 339 | 8.0 | 14.5 | 0.00 | 0.00 | 0.00 | 91 | 1009.1 |
| 20260508025306 | 8 | 339 | 8.0 | 16.1 | 0.00 | 0.00 | 0.00 | 91 | 1008.7 |
| 20260508025203 | 8 | 341 | 8.0 | 17.7 | 0.00 | 0.00 | 0.00 | 91 | 1008.8 |
| 20260508025103 | 8 | 341 | 8.0 | 17.7 | 0.00 | 0.00 | 0.00 | 91 | 1008.7 |
| 20260508025003 | 8 | 343 | 8.0 | 17.7 | 0.00 | 0.00 | 0.00 | 91 | 1008.8 |
| 20260508024903 | 8 | 345 | 8.0 | 17.7 | 0.00 | 0.00 | 0.00 | 91 | 1008.6 |
| 20260508024803 | 8 | 344 | 8.0 | 17.7 | 0.00 | 0.00 | 0.00 | 91 | 1008.9 |
| 20260508024719 | 8 | 339 | 6.4 | 17.7 | 0.00 | 0.00 | 0.00 | 91 | 1009.0 |
| 20260508024703 | 8 | 338 | 6.4 | 17.7 | 0.00 | 0.00 | 0.00 | 91 | 1009.0 |
| 20260508024618 | 8 | 340 | 6.4 | 17.7 | 0.00 | 0.00 | 0.00 | 91 | 1008.8 |
| 20260508024603 | 8 | 341 | 6.4 | 17.7 | 0.00 | 0.00 | 0.00 | 91 | 1008.8 |
| 20260508024303 | 8 | 342 | 8.0 | 17.7 | 0.00 | 0.00 | 0.00 | 90 | 1008.7 |
| 20260508024203 | 8 | 341 | 8.0 | 17.7 | 0.00 | 0.00 | 0.00 | 90 | 1008.9 |
| 20260508024119 | 8 | 341 | 8.0 | 17.7 | 0.00 | 0.00 | 0.00 | 91 | 1008.7 |
| 20260508024103 | 8 | 341 | 8.0 | 16.1 | 0.00 | 0.00 | 0.00 | 91 | 1008.7 |
| 20260508024018 | 8 | 337 | 8.0 | 17.7 | 0.00 | 0.00 | 0.00 | 90 | 1008.8 |
| 20260508024003 | 8 | 336 | 8.0 | 17.7 | 0.00 | 0.00 | 0.00 | 90 | 1008.8 |
| 20260508023916 | 8 | 331 | 8.0 | 17.7 | 0.00 | 0.00 | 0.00 | 90 | 1008.7 |
| 20260508023717 | 8 | 329 | 8.0 | 17.7 | 0.00 | 0.00 | 0.00 | 91 | 1008.8 |
| 20260508023616 | 8 | 326 | 8.0 | 17.7 | 0.00 | 0.00 | 0.00 | 91 | 1008.6 |
| 20260508023603 | 8 | 325 | 8.0 | 17.7 | 0.00 | 0.00 | 0.00 | 91 | 1008.6 |
| 20260508023303 | 8 | 318 | 8.0 | 17.7 | 0.00 | 0.00 | 0.00 | 91 | 1008.6 |
| 20260508023203 | 8 | 316 | 6.4 | 17.7 | 0.00 | 0.00 | 0.00 | 91 | 1008.6 |
| 20260508023103 | 8 | 316 | 6.4 | 17.7 | 0.00 | 0.00 | 0.00 | 91 | 1008.6 |
| 20260508023003 | 8 | 316 | 6.4 | 17.7 | 0.00 | 0.00 | 0.00 | 91 | 1008.7 |
| 20260508022918 | 8 | 319 | 8.0 | 17.7 | 0.00 | 0.00 | 0.00 | 91 | 1008.3 |
| 20260508022903 | 8 | 321 | 8.0 | 17.7 | 0.00 | 0.00 | 0.00 | 91 | 1008.3 |
| 20260508022803 | 8 | 324 | 8.0 | 17.7 | 0.00 | 0.00 | 0.00 | 91 | 1008.6 |
| 20260508022603 | 8 | 325 | 8.0 | 17.7 | 0.00 | 0.00 | 0.00 | 91 | 1008.6 |
| 20260508022503 | 8 | 326 | 8.0 | 17.7 | 0.00 | 0.00 | 0.00 | 91 | 1008.7 |
| 20260508022403 | 8 | 328 | 8.0 | 17.7 | 0.00 | 0.00 | 0.00 | 91 | 1008.5 |
| 20260508022306 | 8 | 330 | 8.0 | 17.7 | 0.00 | 0.00 | 0.00 | 91 | 1008.5 |
| 20260508022203 | 8 | 331 | 8.0 | 17.7 | 0.00 | 0.00 | 0.00 | 91 | 1008.5 |
| 20260508022119 | 8 | 331 | 8.0 | 17.7 | 0.00 | 0.00 | 0.00 | 91 | 1008.6 |
| 20260508022103 | 8 | 330 | 8.0 | 17.7 | 0.00 | 0.00 | 0.00 | 91 | 1008.6 |
| 20260508021803 | 8 | 337 | 6.4 | 17.7 | 0.00 | 0.00 | 0.00 | 91 | 1008.4 |
| 20260508021703 | 8 | 340 | 8.0 | 17.7 | 0.00 | 0.00 | 0.00 | 90 | 1008.5 |
| 20260508021603 | 8 | 341 | 8.0 | 17.7 | 0.00 | 0.00 | 0.00 | 90 | 1008.6 |
| 20260508021503 | 8 | 339 | 8.0 | 17.7 | 0.00 | 0.00 | 0.00 | 90 | 1008.6 |
| 20260508021417 | 8 | 341 | 8.0 | 17.7 | 0.00 | 0.00 | 0.00 | 91 | 1008.7 |
| 20260508021403 | 8 | 342 | 8.0 | 17.7 | 0.00 | 0.00 | 0.00 | 91 | 1008.7 |
| 20260508021303 | 8 | 343 | 8.0 | 17.7 | 0.00 | 0.00 | 0.00 | 91 | 1008.5 |
| 20260508021103 | 8 | 345 | 8.0 | 17.7 | 0.00 | 0.00 | 0.00 | 91 | 1008.6 |
| 20260508021003 | 8 | 346 | 8.0 | 19.3 | 0.00 | 0.00 | 0.00 | 91 | 1008.5 |
| 20260508020903 | 8 | 347 | 8.0 | 19.3 | 0.00 | 0.00 | 0.00 | 91 | 1008.6 |
| 20260508020803 | 8 | 347 | 8.0 | 19.3 | 0.00 | 0.00 | 0.00 | 90 | 1008.5 |
| 20260508020703 | 8 | 348 | 8.0 | 19.3 | 0.00 | 0.00 | 0.00 | 90 | 1008.6 |
| 20260508020603 | 8 | 349 | 8.0 | 19.3 | 0.00 | 0.00 | 0.00 | 90 | 1008.6 |
| 20260508020503 | 8 | 351 | 8.0 | 19.3 | 0.00 | 0.00 | 0.00 | 90 | 1008.5 |
| 20260508020403 | 8 | 349 | 8.0 | 19.3 | 0.00 | 0.00 | 0.00 | 90 | 1008.5 |
| 20260508020303 | 8 | 349 | 8.0 | 19.3 | 0.00 | 0.00 | 0.00 | 90 | 1008.4 |
| 20260508020203 | 8 | 349 | 8.0 | 19.3 | 0.00 | 0.00 | 0.00 | 90 | 1008.6 |
| 20260508020103 | 8 | 348 | 9.7 | 19.3 | 0.00 | 0.00 | 0.00 | 90 | 1008.5 |
| 20260508020003 | 8 | 349 | 9.7 | 19.3 | 0.00 | 0.00 | 0.00 | 91 | 1008.6 |
| 20260508015903 | 8 | 348 | 9.7 | 19.3 | 0.00 | 0.00 | 0.00 | 91 | 1008.7 |
| 20260508015803 | 8 | 349 | 8.0 | 17.7 | 0.00 | 0.00 | 0.00 | 91 | 1008.5 |
| 20260508015603 | 8 | 345 | 8.0 | 17.7 | 0.00 | 0.00 | 0.00 | 91 | 1008.4 |
| 20260508015503 | 8 | 344 | 9.7 | 17.7 | 0.00 | 0.00 | 0.00 | 90 | 1008.6 |
| 20260508015403 | 8 | 344 | 9.7 | 17.7 | 0.00 | 0.00 | 0.00 | 90 | 1008.7 |
| 20260508015305 | 8 | 341 | 9.7 | 17.7 | 0.00 | 0.00 | 0.00 | 91 | 1008.5 |
| 20260508015218 | 8 | 341 | 9.7 | 17.7 | 0.00 | 0.00 | 0.00 | 91 | 1008.5 |
| 20260508015117 | 8 | 342 | 9.7 | 17.7 | 0.00 | 0.00 | 0.00 | 91 | 1008.7 |
| 20260508015103 | 8 | 341 | 9.7 | 17.7 | 0.00 | 0.00 | 0.00 | 91 | 1008.7 |
| 20260508014803 | 8 | 339 | 9.7 | 17.7 | 0.00 | 0.00 | 0.00 | 91 | 1008.4 |
| 20260508014703 | 8 | 338 | 8.0 | 17.7 | 0.00 | 0.00 | 0.00 | 91 | 1008.6 |
| 20260508014603 | 8 | 337 | 8.0 | 16.1 | 0.00 | 0.00 | 0.00 | 90 | 1008.7 |
| 20260508014503 | 8 | 334 | 8.0 | 19.3 | 0.00 | 0.00 | 0.00 | 91 | 1008.5 |
| 20260508014403 | 8 | 332 | 8.0 | 19.3 | 0.00 | 0.00 | 0.00 | 91 | 1008.6 |
| 20260508014303 | 8 | 332 | 8.0 | 19.3 | 0.00 | 0.00 | 0.00 | 90 | 1008.7 |
| 20260508014203 | 8 | 331 | 8.0 | 19.3 | 0.00 | 0.00 | 0.00 | 90 | 1008.6 |
| 20260508014103 | 8 | 330 | 8.0 | 19.3 | 0.00 | 0.00 | 0.00 | 90 | 1008.4 |
| 20260508014003 | 8 | 330 | 8.0 | 19.3 | 0.00 | 0.00 | 0.00 | 90 | 1008.7 |
| 20260508013903 | 8 | 330 | 8.0 | 19.3 | 0.00 | 0.00 | 0.00 | 90 | 1008.7 |
| 20260508013803 | 8 | 331 | 8.0 | 19.3 | 0.00 | 0.00 | 0.00 | 90 | 1008.6 |
| 20260508013703 | 8 | 329 | 8.0 | 19.3 | 0.00 | 0.00 | 0.00 | 90 | 1008.5 |
| 20260508013603 | 8 | 329 | 9.7 | 19.3 | 0.00 | 0.00 | 0.00 | 90 | 1008.4 |
| 20260508013503 | 8 | 329 | 9.7 | 19.3 | 0.00 | 0.00 | 0.00 | 90 | 1008.5 |
| 20260508013403 | 8 | 328 | 9.7 | 19.3 | 0.00 | 0.00 | 0.00 | 90 | 1008.6 |
| 20260508013303 | 8 | 328 | 8.0 | 17.7 | 0.00 | 0.00 | 0.00 | 90 | 1008.7 |
| 20260508013103 | 8 | 328 | 8.0 | 16.1 | 0.00 | 0.00 | 0.00 | 90 | 1008.6 |
| 20260508013019 | 8 | 328 | 8.0 | 16.1 | 0.00 | 0.00 | 0.00 | 90 | 1008.6 |
| 20260508013003 | 8 | 327 | 8.0 | 16.1 | 0.00 | 0.00 | 0.00 | 90 | 1008.6 |
| 20260508012917 | 8 | 328 | 8.0 | 16.1 | 0.00 | 0.00 | 0.00 | 90 | 1008.6 |
| 20260508012903 | 8 | 329 | 8.0 | 16.1 | 0.00 | 0.00 | 0.00 | 90 | 1008.6 |
| 20260508012719 | 8 | 328 | 9.7 | 16.1 | 0.00 | 0.00 | 0.00 | 90 | 1008.6 |
| 20260508012603 | 8 | 332 | 9.7 | 16.1 | 0.00 | 0.00 | 0.00 | 90 | 1008.7 |
| 20260508012403 | 8 | 336 | 9.7 | 16.1 | 0.00 | 0.00 | 0.00 | 89 | 1008.6 |
| 20260508012307 | 8 | 338 | 9.7 | 16.1 | 0.00 | 0.00 | 0.00 | 89 | 1008.8 |
| 20260508012203 | 8 | 340 | 9.7 | 16.1 | 0.00 | 0.00 | 0.00 | 89 | 1008.5 |
| 20260508012003 | 8 | 339 | 9.7 | 16.1 | 0.00 | 0.00 | 0.00 | 89 | 1008.8 |
| 20260508011903 | 8 | 341 | 9.7 | 16.1 | 0.00 | 0.00 | 0.00 | 89 | 1008.9 |
| 20260508011803 | 8 | 341 | 9.7 | 16.1 | 0.00 | 0.00 | 0.00 | 89 | 1008.6 |
| 20260508011703 | 8 | 340 | 8.0 | 16.1 | 0.00 | 0.00 | 0.00 | 89 | 1008.7 |
| 20260508011603 | 8 | 343 | 8.0 | 16.1 | 0.00 | 0.00 | 0.00 | 89 | 1008.6 |
| 20260508011518 | 8 | 344 | 8.0 | 16.1 | 0.00 | 0.00 | 0.00 | 89 | 1008.6 |
| 20260508011503 | 8 | 345 | 8.0 | 16.1 | 0.00 | 0.00 | 0.00 | 89 | 1008.6 |
| 20260508011416 | 8 | 344 | 8.0 | 16.1 | 0.00 | 0.00 | 0.00 | 89 | 1008.5 |
| 20260508011403 | 8 | 343 | 8.0 | 16.1 | 0.00 | 0.00 | 0.00 | 89 | 1008.5 |
| 20260508011218 | 8 | 343 | 8.0 | 12.9 | 0.00 | 0.00 | 0.00 | 89 | 1008.7 |
| 20260508011103 | 8 | 343 | 6.4 | 12.9 | 0.00 | 0.00 | 0.00 | 89 | 1008.5 |
| 20260508010903 | 8 | 345 | 8.0 | 16.1 | 0.00 | 0.00 | 0.00 | 89 | 1008.7 |
| 20260508010803 | 8 | 345 | 8.0 | 16.1 | 0.00 | 0.00 | 0.00 | 89 | 1008.7 |
| 20260508010718 | 8 | 347 | 8.0 | 16.1 | 0.00 | 0.00 | 0.00 | 89 | 1008.8 |
| 20260508010703 | 8 | 347 | 8.0 | 17.7 | 0.00 | 0.00 | 0.00 | 89 | 1008.8 |
| 20260508010603 | 8 | 346 | 8.0 | 17.7 | 0.00 | 0.00 | 0.00 | 89 | 1008.8 |
| 20260508010403 | 8 | 346 | 9.7 | 17.7 | 0.00 | 0.00 | 0.00 | 89 | 1008.9 |
| 20260508010303 | 8 | 346 | 8.0 | 17.7 | 0.00 | 0.00 | 0.00 | 89 | 1008.8 |
| 20260508010203 | 8 | 345 | 8.0 | 17.7 | 0.00 | 0.00 | 0.00 | 89 | 1008.8 |
| 20260508010003 | 8 | 345 | 8.0 | 17.7 | 0.00 | 0.00 | 0.00 | 89 | 1008.9 |
| 20260508005903 | 8 | 342 | 8.0 | 17.7 | 0.00 | 0.00 | 0.00 | 89 | 1008.9 |
| 20260508005803 | 8 | 341 | 8.0 | 17.7 | 0.00 | 0.00 | 0.00 | 89 | 1009.1 |
| 20260508005703 | 8 | 342 | 8.0 | 17.7 | 0.00 | 0.00 | 0.00 | 89 | 1008.8 |
| 20260508005603 | 8 | 340 | 8.0 | 17.7 | 0.00 | 0.00 | 0.00 | 89 | 1008.8 |
| 20260508005403 | 8 | 334 | 6.4 | 14.5 | 0.00 | 0.00 | 0.00 | 89 | 1008.9 |
| 20260508005305 | 8 | 330 | 8.0 | 14.5 | 0.00 | 0.00 | 0.00 | 89 | 1008.9 |
| 20260508005203 | 8 | 329 | 6.4 | 14.5 | 0.00 | 0.00 | 0.00 | 89 | 1008.9 |
| 20260508005103 | 8 | 328 | 8.0 | 19.3 | 0.00 | 0.00 | 0.00 | 89 | 1008.8 |
| 20260508005003 | 8 | 325 | 8.0 | 19.3 | 0.00 | 0.00 | 0.00 | 89 | 1008.8 |
| 20260508004903 | 8 | 321 | 8.0 | 19.3 | 0.00 | 0.00 | 0.00 | 89 | 1008.9 |
| 20260508004803 | 8 | 316 | 8.0 | 19.3 | 0.00 | 0.00 | 0.00 | 89 | 1009.1 |
| 20260508004703 | 8 | 313 | 8.0 | 19.3 | 0.00 | 0.00 | 0.00 | 89 | 1008.7 |
| 20260508004603 | 8 | 313 | 8.0 | 19.3 | 0.00 | 0.00 | 0.00 | 89 | 1009.0 |
| 20260508004503 | 8 | 312 | 8.0 | 19.3 | 0.00 | 0.00 | 0.00 | 89 | 1008.9 |
| 20260508004403 | 8 | 312 | 6.4 | 19.3 | 0.00 | 0.00 | 0.00 | 89 | 1008.8 |
| 20260508004303 | 8 | 313 | 6.4 | 19.3 | 0.00 | 0.00 | 0.00 | 89 | 1008.8 |
| 20260508004203 | 8 | 314 | 8.0 | 19.3 | 0.00 | 0.00 | 0.00 | 89 | 1008.9 |
| 20260508004003 | 8 | 310 | 6.4 | 19.3 | 0.00 | 0.00 | 0.00 | 89 | 1009.0 |
| 20260508003903 | 8 | 314 | 6.4 | 14.5 | 0.00 | 0.00 | 0.00 | 89 | 1008.7 |
| 20260508003803 | 8 | 315 | 6.4 | 14.5 | 0.00 | 0.00 | 0.00 | 89 | 1008.8 |
| 20260508003703 | 8 | 317 | 6.4 | 14.5 | 0.00 | 0.00 | 0.00 | 89 | 1008.8 |
| 20260508003603 | 8 | 317 | 6.4 | 14.5 | 0.00 | 0.00 | 0.00 | 89 | 1008.8 |
| 20260508003503 | 8 | 320 | 6.4 | 14.5 | 0.00 | 0.00 | 0.00 | 89 | 1008.9 |
| 20260508003303 | 8 | 327 | 6.4 | 14.5 | 0.00 | 0.00 | 0.00 | 89 | 1008.9 |
| 20260508003203 | 8 | 330 | 6.4 | 14.5 | 0.00 | 0.00 | 0.00 | 89 | 1008.8 |
| 20260508003103 | 8 | 328 | 6.4 | 14.5 | 0.00 | 0.00 | 0.00 | 89 | 1008.8 |
| 20260508003003 | 8 | 329 | 6.4 | 14.5 | 0.00 | 0.00 | 0.00 | 89 | 1008.9 |
| 20260508002903 | 8 | 333 | 6.4 | 14.5 | 0.00 | 0.00 | 0.00 | 89 | 1008.9 |
| 20260508002803 | 8 | 333 | 6.4 | 14.5 | 0.00 | 0.00 | 0.00 | 89 | 1008.9 |
| 20260508002703 | 8 | 332 | 8.0 | 14.5 | 0.00 | 0.00 | 0.00 | 89 | 1008.7 |
| 20260508002603 | 8 | 333 | 6.4 | 17.7 | 0.00 | 0.00 | 0.00 | 89 | 1008.9 |
| 20260508002503 | 8 | 332 | 8.0 | 17.7 | 0.00 | 0.00 | 0.00 | 89 | 1008.9 |
| 20260508002403 | 8 | 332 | 8.0 | 17.7 | 0.00 | 0.00 | 0.00 | 89 | 1008.8 |
| 20260508002306 | 8 | 331 | 8.0 | 17.7 | 0.00 | 0.00 | 0.00 | 89 | 1008.7 |
| 20260508002203 | 8 | 329 | 8.0 | 17.7 | 0.00 | 0.00 | 0.00 | 89 | 1008.9 |
| 20260508002103 | 8 | 331 | 8.0 | 17.7 | 0.00 | 0.00 | 0.00 | 89 | 1008.6 |
| 20260508002003 | 8 | 331 | 8.0 | 20.9 | 0.00 | 0.00 | 0.00 | 89 | 1008.8 |
| 20260508001903 | 8 | 331 | 9.7 | 20.9 | 0.00 | 0.00 | 0.00 | 90 | 1008.7 |
| 20260508001803 | 8 | 333 | 9.7 | 20.9 | 0.00 | 0.00 | 0.00 | 90 | 1008.5 |
| 20260508001703 | 8 | 334 | 9.7 | 20.9 | 0.00 | 0.00 | 0.00 | 89 | 1008.7 |
| 20260508001603 | 8 | 336 | 9.7 | 20.9 | 0.00 | 0.00 | 0.00 | 89 | 1008.6 |
| 20260508001503 | 8 | 336 | 9.7 | 20.9 | 0.00 | 0.00 | 0.00 | 89 | 1008.7 |
| 20260508001403 | 8 | 334 | 9.7 | 20.9 | 0.00 | 0.00 | 0.00 | 89 | 1008.8 |
| 20260508001303 | 8 | 332 | 9.7 | 20.9 | 0.00 | 0.00 | 0.00 | 89 | 1008.6 |
| 20260508001203 | 8 | 332 | 9.7 | 20.9 | 0.00 | 0.00 | 0.00 | 89 | 1008.5 |
| 20260508001103 | 8 | 333 | 8.0 | 20.9 | 0.00 | 0.00 | 0.00 | 89 | 1008.8 |
| 20260508001003 | 8 | 335 | 8.0 | 20.9 | 0.00 | 0.00 | 0.00 | 89 | 1008.7 |
| 20260508000903 | 8 | 335 | 8.0 | 20.9 | 0.00 | 0.00 | 0.00 | 89 | 1008.6 |
| 20260508000803 | 8 | 335 | 8.0 | 19.3 | 0.00 | 0.00 | 0.00 | 89 | 1008.8 |
| 20260508000703 | 8 | 333 | 8.0 | 19.3 | 0.00 | 0.00 | 0.00 | 89 | 1008.6 |
| 20260508000603 | 8 | 330 | 8.0 | 19.3 | 0.00 | 0.00 | 0.00 | 89 | 1008.6 |
| 20260508000503 | 8 | 331 | 8.0 | 19.3 | 0.00 | 0.00 | 0.00 | 89 | 1008.5 |
| 20260508000404 | 8 | 333 | 8.0 | 16.1 | 0.00 | 0.00 | 0.00 | 89 | 1008.7 |
| 20260508000305 | 8 | 335 | 8.0 | 16.1 | 0.00 | 0.00 | 0.00 | 89 | 1008.9 |
| 20260508000204 | 8 | 337 | 8.0 | 16.1 | 0.00 | 0.00 | 0.00 | 89 | 1008.7 |
| 20260508000017 | 9 | 341 | 8.0 | 16.1 | 0.00 | 0.00 | 0.00 | 89 | 1008.6 |
| 20260508000004 | 9 | 341 | 6.4 | 16.1 | 0.00 | 0.00 | 0.00 | 89 | 1008.6 |
| 20260507235903 | 8 | 342 | 6.4 | 16.1 | 0.00 | 0.00 | 0.00 | 89 | 1008.7 |
| 20260507235703 | 8 | 347 | 6.4 | 16.1 | 0.00 | 0.00 | 0.00 | 89 | 1008.6 |
| 20260507235603 | 8 | 346 | 8.0 | 17.7 | 0.00 | 0.00 | 0.00 | 89 | 1008.8 |
| 20260507235503 | 9 | 344 | 8.0 | 17.7 | 0.00 | 0.00 | 0.00 | 89 | 1008.8 |
| 20260507235403 | 8 | 344 | 8.0 | 17.7 | 0.00 | 0.00 | 0.00 | 89 | 1008.8 |
| 20260507235306 | 8 | 343 | 8.0 | 17.7 | 0.00 | 0.00 | 0.00 | 89 | 1008.9 |
| 20260507235203 | 8 | 342 | 8.0 | 17.7 | 0.00 | 0.00 | 0.00 | 89 | 1008.8 |
| 20260507235103 | 8 | 342 | 8.0 | 17.7 | 0.00 | 0.00 | 0.00 | 89 | 1008.7 |
| 20260507235003 | 8 | 341 | 8.0 | 17.7 | 0.00 | 0.00 | 0.00 | 89 | 1008.9 |
| 20260507234903 | 8 | 341 | 8.0 | 17.7 | 0.00 | 0.00 | 0.00 | 89 | 1008.9 |
| 20260507234803 | 8 | 341 | 8.0 | 17.7 | 0.00 | 0.00 | 0.00 | 89 | 1008.8 |
| 20260507234703 | 8 | 341 | 8.0 | 17.7 | 0.00 | 0.00 | 0.00 | 89 | 1008.7 |
| 20260507234603 | 8 | 342 | 8.0 | 17.7 | 0.00 | 0.00 | 0.00 | 89 | 1008.8 |
| 20260507234503 | 8 | 343 | 8.0 | 17.7 | 0.00 | 0.00 | 0.00 | 89 | 1008.6 |
| 20260507234403 | 8 | 343 | 8.0 | 14.5 | 0.00 | 0.00 | 0.00 | 89 | 1008.6 |
| 20260507234303 | 8 | 340 | 8.0 | 14.5 | 0.00 | 0.00 | 0.00 | 89 | 1009.0 |
| 20260507234203 | 8 | 336 | 8.0 | 14.5 | 0.00 | 0.00 | 0.00 | 89 | 1008.9 |
| 20260507234103 | 8 | 334 | 8.0 | 14.5 | 0.00 | 0.00 | 0.00 | 89 | 1009.0 |
| 20260507234016 | 8 | 334 | 8.0 | 14.5 | 0.00 | 0.00 | 0.00 | 89 | 1008.7 |
| 20260507233703 | 8 | 328 | 8.0 | 14.5 | 0.00 | 0.00 | 0.00 | 89 | 1008.8 |
| 20260507233603 | 8 | 327 | 6.4 | 16.1 | 0.00 | 0.00 | 0.00 | 89 | 1008.6 |
| 20260507233503 | 8 | 326 | 8.0 | 16.1 | 0.00 | 0.00 | 0.00 | 89 | 1008.7 |
| 20260507233403 | 8 | 328 | 8.0 | 16.1 | 0.00 | 0.00 | 0.00 | 89 | 1008.8 |
| 20260507233303 | 8 | 330 | 8.0 | 16.1 | 0.00 | 0.00 | 0.00 | 89 | 1008.9 |
| 20260507233217 | 8 | 332 | 8.0 | 16.1 | 0.00 | 0.00 | 0.00 | 89 | 1008.9 |
| 20260507233203 | 8 | 333 | 8.0 | 16.1 | 0.00 | 0.00 | 0.00 | 89 | 1008.9 |
| 20260507233103 | 8 | 333 | 8.0 | 16.1 | 0.00 | 0.00 | 0.00 | 89 | 1008.9 |
| 20260507232803 | 8 | 330 | 8.0 | 17.7 | 0.00 | 0.00 | 0.00 | 89 | 1009.0 |
| 20260507232703 | 9 | 332 | 8.0 | 17.7 | 0.00 | 0.00 | 0.00 | 89 | 1008.8 |
| 20260507232603 | 8 | 333 | 8.0 | 17.7 | 0.00 | 0.00 | 0.00 | 89 | 1008.7 |
| 20260507232503 | 8 | 333 | 8.0 | 17.7 | 0.00 | 0.00 | 0.00 | 88 | 1008.9 |
| 20260507232403 | 8 | 334 | 8.0 | 17.7 | 0.00 | 0.00 | 0.00 | 88 | 1008.9 |
| 20260507232306 | 8 | 334 | 8.0 | 19.3 | 0.00 | 0.00 | 0.00 | 88 | 1008.7 |
| 20260507232219 | 9 | 333 | 8.0 | 19.3 | 0.00 | 0.00 | 0.00 | 88 | 1008.8 |
| 20260507232203 | 9 | 332 | 8.0 | 19.3 | 0.00 | 0.00 | 0.00 | 88 | 1008.8 |
| 20260507232103 | 9 | 329 | 9.7 | 19.3 | 0.00 | 0.00 | 0.00 | 88 | 1008.7 |
| 20260507232016 | 9 | 327 | 9.7 | 19.3 | 0.00 | 0.00 | 0.00 | 88 | 1008.6 |
| 20260507231903 | 9 | 328 | 9.7 | 19.3 | 0.00 | 0.00 | 0.00 | 88 | 1008.6 |
| 20260507231703 | 9 | 328 | 9.7 | 19.3 | 0.00 | 0.00 | 0.00 | 88 | 1008.7 |
| 20260507231603 | 9 | 328 | 9.7 | 19.3 | 0.00 | 0.00 | 0.00 | 88 | 1008.7 |
| 20260507231503 | 9 | 329 | 9.7 | 19.3 | 0.00 | 0.00 | 0.00 | 88 | 1008.5 |
| 20260507231403 | 9 | 329 | 9.7 | 19.3 | 0.00 | 0.00 | 0.00 | 88 | 1008.7 |
| 20260507231318 | 9 | 328 | 9.7 | 19.3 | 0.00 | 0.00 | 0.00 | 88 | 1008.5 |
| 20260507231303 | 9 | 327 | 9.7 | 19.3 | 0.00 | 0.00 | 0.00 | 88 | 1008.5 |
| 20260507231203 | 9 | 328 | 9.7 | 19.3 | 0.00 | 0.00 | 0.00 | 88 | 1008.7 |
| 20260507231003 | 9 | 334 | 8.0 | 17.7 | 0.00 | 0.00 | 0.00 | 87 | 1008.6 |
| 20260507230903 | 9 | 330 | 8.0 | 17.7 | 0.00 | 0.00 | 0.00 | 88 | 1008.8 |
| 20260507230803 | 9 | 327 | 8.0 | 17.7 | 0.00 | 0.00 | 0.00 | 88 | 1008.6 |
| 20260507230703 | 9 | 325 | 8.0 | 17.7 | 0.00 | 0.00 | 0.00 | 88 | 1008.6 |
| 20260507230616 | 9 | 320 | 8.0 | 17.7 | 0.00 | 0.00 | 0.00 | 88 | 1008.6 |
| 20260507230603 | 9 | 319 | 8.0 | 17.7 | 0.00 | 0.00 | 0.00 | 88 | 1008.6 |
| 20260507230503 | 9 | 316 | 8.0 | 17.7 | 0.00 | 0.00 | 0.00 | 88 | 1008.7 |
| 20260507230303 | 9 | 313 | 8.0 | 17.7 | 0.00 | 0.00 | 0.00 | 88 | 1008.9 |
| 20260507230219 | 9 | 310 | 8.0 | 17.7 | 0.00 | 0.00 | 0.00 | 88 | 1008.8 |
| 20260507230203 | 9 | 309 | 8.0 | 17.7 | 0.00 | 0.00 | 0.00 | 88 | 1008.8 |
| 20260507225903 | 9 | 311 | 8.0 | 14.5 | 0.00 | 0.00 | 0.00 | 88 | 1008.9 |
| 20260507225803 | 9 | 312 | 8.0 | 14.5 | 0.00 | 0.00 | 0.00 | 87 | 1008.9 |
| 20260507225703 | 9 | 317 | 6.4 | 14.5 | 0.00 | 0.00 | 0.00 | 88 | 1008.9 |
| 20260507225603 | 9 | 322 | 6.4 | 14.5 | 0.00 | 0.00 | 0.00 | 88 | 1008.8 |
| 20260507225503 | 9 | 326 | 6.4 | 14.5 | 0.00 | 0.00 | 0.00 | 88 | 1008.8 |
| 20260507225403 | 9 | 326 | 6.4 | 14.5 | 0.00 | 0.00 | 0.00 | 88 | 1008.9 |
| 20260507225306 | 9 | 331 | 6.4 | 14.5 | 0.00 | 0.00 | 0.00 | 88 | 1008.8 |
| 20260507225203 | 9 | 338 | 6.4 | 14.5 | 0.00 | 0.00 | 0.00 | 88 | 1009.0 |
| 20260507225119 | 9 | 342 | 6.4 | 14.5 | 0.00 | 0.00 | 0.00 | 88 | 1008.8 |
| 20260507225103 | 9 | 342 | 6.4 | 14.5 | 0.00 | 0.00 | 0.00 | 87 | 1008.7 |
| 20260507225003 | 9 | 344 | 6.4 | 14.5 | 0.00 | 0.00 | 0.00 | 87 | 1008.7 |
| 20260507224718 | 9 | 346 | 6.4 | 14.5 | 0.00 | 0.00 | 0.00 | 87 | 1008.8 |
| 20260507224703 | 9 | 345 | 6.4 | 14.5 | 0.00 | 0.00 | 0.00 | 87 | 1008.8 |
| 20260507224603 | 9 | 342 | 8.0 | 16.1 | 0.00 | 0.00 | 0.00 | 88 | 1008.9 |
| 20260507224519 | 9 | 342 | 8.0 | 16.1 | 0.00 | 0.00 | 0.00 | 87 | 1008.6 |
| 20260507224403 | 9 | 338 | 8.0 | 16.1 | 0.00 | 0.00 | 0.00 | 87 | 1008.9 |
| 20260507224203 | 9 | 330 | 8.0 | 16.1 | 0.00 | 0.00 | 0.00 | 88 | 1008.9 |
| 20260507224103 | 9 | 331 | 8.0 | 16.1 | 0.00 | 0.00 | 0.00 | 87 | 1008.9 |
| 20260507224003 | 9 | 331 | 8.0 | 16.1 | 0.00 | 0.00 | 0.00 | 87 | 1008.8 |
| 20260507223903 | 9 | 331 | 8.0 | 16.1 | 0.00 | 0.00 | 0.00 | 88 | 1008.8 |
| 20260507223715 | 9 | 332 | 8.0 | 16.1 | 0.00 | 0.00 | 0.00 | 87 | 1008.7 |
| 20260507223703 | 9 | 332 | 8.0 | 16.1 | 0.00 | 0.00 | 0.00 | 88 | 1008.7 |
| 20260507223603 | 9 | 334 | 8.0 | 16.1 | 0.00 | 0.00 | 0.00 | 87 | 1008.7 |
| 20260507223403 | 9 | 336 | 6.4 | 16.1 | 0.00 | 0.00 | 0.00 | 87 | 1008.7 |
| 20260507223303 | 9 | 339 | 8.0 | 16.1 | 0.00 | 0.00 | 0.00 | 87 | 1008.7 |
| 20260507223203 | 9 | 341 | 8.0 | 16.1 | 0.00 | 0.00 | 0.00 | 87 | 1008.6 |
| 20260507223103 | 9 | 338 | 8.0 | 16.1 | 0.00 | 0.00 | 0.00 | 87 | 1008.6 |
| 20260507223003 | 9 | 338 | 8.0 | 16.1 | 0.00 | 0.00 | 0.00 | 87 | 1008.9 |
| 20260507222903 | 9 | 336 | 8.0 | 14.5 | 0.00 | 0.00 | 0.00 | 87 | 1008.8 |
| 20260507222803 | 9 | 335 | 8.0 | 14.5 | 0.00 | 0.00 | 0.00 | 87 | 1008.6 |
| 20260507222703 | 9 | 335 | 8.0 | 14.5 | 0.00 | 0.00 | 0.00 | 87 | 1008.4 |
| 20260507222603 | 9 | 334 | 8.0 | 14.5 | 0.00 | 0.00 | 0.00 | 87 | 1008.4 |
| 20260507222503 | 9 | 332 | 8.0 | 16.1 | 0.00 | 0.00 | 0.00 | 87 | 1008.7 |
| 20260507222403 | 9 | 331 | 8.0 | 16.1 | 0.00 | 0.00 | 0.00 | 87 | 1008.7 |
| 20260507222316 | 9 | 329 | 8.0 | 16.1 | 0.00 | 0.00 | 0.00 | 88 | 1008.5 |
| 20260507222306 | 9 | 330 | 8.0 | 16.1 | 0.00 | 0.00 | 0.00 | 88 | 1008.5 |
| 20260507222219 | 9 | 331 | 8.0 | 16.1 | 0.00 | 0.00 | 0.00 | 88 | 1008.7 |
| 20260507222203 | 9 | 331 | 8.0 | 16.1 | 0.00 | 0.00 | 0.00 | 87 | 1008.7 |
| 20260507222117 | 9 | 332 | 8.0 | 16.1 | 0.00 | 0.00 | 0.00 | 87 | 1008.7 |
| 20260507222016 | 9 | 334 | 8.0 | 20.9 | 0.00 | 0.00 | 0.00 | 87 | 1008.7 |
| 20260507221703 | 9 | 339 | 8.0 | 20.9 | 0.00 | 0.00 | 0.00 | 87 | 1008.8 |
| 20260507221603 | 9 | 337 | 8.0 | 20.9 | 0.00 | 0.00 | 0.00 | 87 | 1008.4 |
| 20260507221503 | 9 | 338 | 8.0 | 20.9 | 0.00 | 0.00 | 0.00 | 87 | 1008.7 |
| 20260507221419 | 9 | 340 | 8.0 | 20.9 | 0.00 | 0.00 | 0.00 | 87 | 1008.7 |
| 20260507221303 | 9 | 341 | 8.0 | 20.9 | 0.00 | 0.00 | 0.00 | 87 | 1008.6 |
| 20260507221103 | 9 | 338 | 8.0 | 20.9 | 0.00 | 0.00 | 0.00 | 88 | 1008.4 |
| 20260507221003 | 9 | 337 | 8.0 | 20.9 | 0.00 | 0.00 | 0.00 | 88 | 1008.7 |
| 20260507220916 | 9 | 333 | 8.0 | 20.9 | 0.00 | 0.00 | 0.00 | 88 | 1008.6 |
| 20260507220903 | 9 | 332 | 8.0 | 20.9 | 0.00 | 0.00 | 0.00 | 88 | 1008.6 |
| 20260507220803 | 9 | 330 | 8.0 | 14.5 | 0.00 | 0.00 | 0.00 | 88 | 1008.6 |
| 20260507220717 | 9 | 331 | 8.0 | 19.3 | 0.00 | 0.00 | 0.00 | 87 | 1008.6 |
| 20260507220603 | 9 | 331 | 8.0 | 19.3 | 0.00 | 0.00 | 0.00 | 88 | 1008.6 |
| 20260507220403 | 9 | 334 | 8.0 | 20.9 | 0.00 | 0.00 | 0.00 | 88 | 1008.6 |
| 20260507220303 | 9 | 333 | 8.0 | 20.9 | 0.00 | 0.00 | 0.00 | 88 | 1008.6 |
| 20260507220203 | 9 | 334 | 9.7 | 20.9 | 0.00 | 0.00 | 0.00 | 88 | 1008.6 |
| 20260507220003 | 9 | 337 | 9.7 | 20.9 | 0.00 | 0.00 | 0.00 | 88 | 1008.6 |
| 20260507215903 | 9 | 340 | 9.7 | 20.9 | 0.00 | 0.00 | 0.00 | 88 | 1008.7 |
| 20260507215719 | 9 | 342 | 11.3 | 20.9 | 0.00 | 0.00 | 0.00 | 88 | 1008.6 |
| 20260507215703 | 9 | 341 | 11.3 | 20.9 | 0.00 | 0.00 | 0.00 | 88 | 1008.6 |
| 20260507215618 | 9 | 342 | 11.3 | 20.9 | 0.00 | 0.00 | 0.00 | 88 | 1008.5 |
| 20260507215603 | 9 | 341 | 11.3 | 20.9 | 0.00 | 0.00 | 0.00 | 88 | 1008.5 |
| 20260507215306 | 9 | 340 | 11.3 | 20.9 | 0.00 | 0.00 | 0.00 | 88 | 1008.8 |
| 20260507215203 | 9 | 340 | 11.3 | 20.9 | 0.00 | 0.00 | 0.00 | 88 | 1008.8 |
| 20260507215103 | 9 | 339 | 11.3 | 20.9 | 0.00 | 0.00 | 0.00 | 88 | 1008.6 |
| 20260507214903 | 9 | 335 | 11.3 | 20.9 | 0.00 | 0.00 | 0.00 | 88 | 1008.7 |
| 20260507214803 | 9 | 331 | 11.3 | 20.9 | 0.00 | 0.00 | 0.00 | 88 | 1008.5 |
| 20260507214603 | 9 | 330 | 9.7 | 20.9 | 0.00 | 0.00 | 0.00 | 87 | 1008.5 |
| 20260507214503 | 9 | 330 | 9.7 | 20.9 | 0.00 | 0.00 | 0.00 | 87 | 1008.6 |
| 20260507214403 | 9 | 330 | 9.7 | 20.9 | 0.00 | 0.00 | 0.00 | 87 | 1008.5 |
| 20260507214303 | 9 | 331 | 9.7 | 20.9 | 0.00 | 0.00 | 0.00 | 87 | 1008.5 |
| 20260507214203 | 9 | 330 | 9.7 | 20.9 | 0.00 | 0.00 | 0.00 | 87 | 1008.2 |
| 20260507214103 | 9 | 330 | 9.7 | 20.9 | 0.00 | 0.00 | 0.00 | 87 | 1008.5 |
| 20260507214003 | 9 | 330 | 8.0 | 19.3 | 0.00 | 0.00 | 0.00 | 87 | 1008.6 |
| 20260507213903 | 10 | 330 | 9.7 | 19.3 | 0.00 | 0.00 | 0.00 | 87 | 1008.5 |
| 20260507213803 | 10 | 333 | 9.7 | 19.3 | 0.00 | 0.00 | 0.00 | 87 | 1008.7 |
| 20260507213703 | 10 | 335 | 9.7 | 19.3 | 0.00 | 0.00 | 0.00 | 87 | 1008.6 |
| 20260507213603 | 10 | 339 | 9.7 | 19.3 | 0.00 | 0.00 | 0.00 | 87 | 1008.6 |
| 20260507213503 | 10 | 339 | 9.7 | 19.3 | 0.00 | 0.00 | 0.00 | 87 | 1008.6 |
| 20260507213419 | 10 | 338 | 9.7 | 19.3 | 0.00 | 0.00 | 0.00 | 87 | 1008.5 |
| 20260507213403 | 10 | 338 | 11.3 | 19.3 | 0.00 | 0.00 | 0.00 | 87 | 1008.5 |
| 20260507213103 | 10 | 340 | 11.3 | 19.3 | 0.00 | 0.00 | 0.00 | 87 | 1008.5 |
| 20260507213003 | 10 | 342 | 11.3 | 19.3 | 0.00 | 0.00 | 0.00 | 86 | 1008.4 |
| 20260507212905 | 10 | 344 | 11.3 | 19.3 | 0.00 | 0.00 | 0.00 | 87 | 1008.8 |
| 20260507212803 | 10 | 343 | 11.3 | 19.3 | 0.00 | 0.00 | 0.00 | 86 | 1008.5 |
| 20260507212717 | 10 | 343 | 9.7 | 19.3 | 0.00 | 0.00 | 0.00 | 86 | 1008.5 |
| 20260507212703 | 10 | 342 | 9.7 | 19.3 | 0.00 | 0.00 | 0.00 | 86 | 1008.5 |
| 20260507212603 | 10 | 340 | 9.7 | 19.3 | 0.00 | 0.00 | 0.00 | 86 | 1008.5 |
| 20260507212403 | 10 | 340 | 9.7 | 19.3 | 0.00 | 0.00 | 0.00 | 86 | 1008.6 |
| 20260507212306 | 10 | 338 | 9.7 | 19.3 | 0.00 | 0.00 | 0.00 | 86 | 1008.4 |
| 20260507212203 | 10 | 336 | 9.7 | 19.3 | 0.00 | 0.00 | 0.00 | 86 | 1008.4 |
| 20260507212103 | 10 | 334 | 9.7 | 17.7 | 0.00 | 0.00 | 0.00 | 86 | 1008.3 |
| 20260507212003 | 10 | 333 | 9.7 | 17.7 | 0.00 | 0.00 | 0.00 | 86 | 1008.3 |
| 20260507211903 | 10 | 332 | 9.7 | 17.7 | 0.00 | 0.00 | 0.00 | 86 | 1008.6 |
| 20260507211803 | 10 | 331 | 9.7 | 17.7 | 0.00 | 0.00 | 0.00 | 86 | 1008.4 |
| 20260507211703 | 10 | 330 | 9.7 | 17.7 | 0.00 | 0.00 | 0.00 | 86 | 1008.3 |
| 20260507211603 | 10 | 329 | 9.7 | 17.7 | 0.00 | 0.00 | 0.00 | 86 | 1008.3 |
| 20260507211503 | 10 | 328 | 9.7 | 17.7 | 0.00 | 0.00 | 0.00 | 86 | 1008.4 |
| 20260507211419 | 10 | 327 | 9.7 | 17.7 | 0.00 | 0.00 | 0.00 | 86 | 1008.3 |
| 20260507211403 | 10 | 327 | 8.0 | 17.7 | 0.00 | 0.00 | 0.00 | 86 | 1008.3 |
| 20260507211303 | 10 | 327 | 8.0 | 17.7 | 0.00 | 0.00 | 0.00 | 86 | 1008.3 |
| 20260507211103 | 10 | 324 | 8.0 | 17.7 | 0.00 | 0.00 | 0.00 | 86 | 1008.7 |
| 20260507211003 | 10 | 325 | 6.4 | 17.7 | 0.00 | 0.00 | 0.00 | 86 | 1008.4 |
| 20260507210916 | 10 | 324 | 6.4 | 17.7 | 0.00 | 0.00 | 0.00 | 87 | 1008.7 |
| 20260507210903 | 10 | 326 | 6.4 | 17.7 | 0.00 | 0.00 | 0.00 | 87 | 1008.7 |
| 20260507210803 | 10 | 326 | 6.4 | 17.7 | 0.00 | 0.00 | 0.00 | 87 | 1008.5 |
| 20260507210603 | 10 | 331 | 4.8 | 11.3 | 0.00 | 0.00 | 0.00 | 86 | 1008.7 |
| 20260507210503 | 10 | 331 | 6.4 | 11.3 | 0.00 | 0.00 | 0.00 | 86 | 1008.6 |
| 20260507210403 | 10 | 332 | 6.4 | 11.3 | 0.00 | 0.00 | 0.00 | 86 | 1008.6 |
| 20260507210303 | 10 | 331 | 6.4 | 11.3 | 0.00 | 0.00 | 0.00 | 86 | 1008.5 |
| 20260507210203 | 10 | 332 | 6.4 | 12.9 | 0.00 | 0.00 | 0.00 | 86 | 1008.4 |
| 20260507210117 | 10 | 334 | 6.4 | 12.9 | 0.00 | 0.00 | 0.00 | 86 | 1008.4 |
| 20260507210103 | 10 | 335 | 6.4 | 12.9 | 0.00 | 0.00 | 0.00 | 86 | 1008.4 |
| 20260507210003 | 10 | 334 | 6.4 | 19.3 | 0.00 | 0.00 | 0.00 | 86 | 1008.3 |
| 20260507205803 | 10 | 330 | 8.0 | 19.3 | 0.00 | 0.00 | 0.00 | 86 | 1008.3 |
| 20260507205703 | 10 | 331 | 8.0 | 19.3 | 0.00 | 0.00 | 0.00 | 86 | 1008.3 |
| 20260507205603 | 10 | 330 | 8.0 | 19.3 | 0.00 | 0.00 | 0.00 | 86 | 1008.3 |
| 20260507205516 | 10 | 331 | 8.0 | 20.9 | 0.00 | 0.00 | 0.00 | 86 | 1008.3 |
| 20260507205503 | 10 | 331 | 8.0 | 20.9 | 0.00 | 0.00 | 0.00 | 86 | 1008.4 |
| 20260507205403 | 10 | 332 | 9.7 | 20.9 | 0.00 | 0.00 | 0.00 | 85 | 1008.4 |
| 20260507205203 | 10 | 333 | 9.7 | 20.9 | 0.00 | 0.00 | 0.00 | 85 | 1008.3 |
| 20260507205103 | 10 | 332 | 9.7 | 20.9 | 0.00 | 0.00 | 0.00 | 85 | 1008.3 |
| 20260507205003 | 10 | 333 | 9.7 | 20.9 | 0.00 | 0.00 | 0.00 | 85 | 1008.2 |
| 20260507204903 | 10 | 334 | 9.7 | 20.9 | 0.00 | 0.00 | 0.00 | 85 | 1008.4 |
| 20260507204803 | 10 | 335 | 9.7 | 20.9 | 0.00 | 0.00 | 0.00 | 85 | 1008.4 |
| 20260507204717 | 10 | 335 | 8.0 | 20.9 | 0.00 | 0.00 | 0.00 | 85 | 1008.2 |
| 20260507204703 | 10 | 334 | 8.0 | 20.9 | 0.00 | 0.00 | 0.00 | 85 | 1008.2 |
| 20260507204603 | 10 | 333 | 8.0 | 20.9 | 0.00 | 0.00 | 0.00 | 85 | 1008.2 |
| 20260507204403 | 10 | 328 | 8.0 | 20.9 | 0.00 | 0.00 | 0.00 | 85 | 1008.2 |
| 20260507204303 | 10 | 326 | 8.0 | 16.1 | 0.00 | 0.00 | 0.00 | 85 | 1008.1 |
| 20260507204203 | 10 | 325 | 8.0 | 16.1 | 0.00 | 0.00 | 0.00 | 85 | 1008.1 |
| 20260507204103 | 10 | 325 | 8.0 | 16.1 | 0.00 | 0.00 | 0.00 | 85 | 1008.1 |
| 20260507204003 | 10 | 325 | 8.0 | 16.1 | 0.00 | 0.00 | 0.00 | 85 | 1008.2 |
| 20260507203918 | 10 | 324 | 8.0 | 16.1 | 0.00 | 0.00 | 0.00 | 85 | 1008.4 |
| 20260507203903 | 10 | 323 | 8.0 | 16.1 | 0.00 | 0.00 | 0.00 | 85 | 1008.4 |
| 20260507203803 | 10 | 324 | 8.0 | 16.1 | 0.00 | 0.00 | 0.00 | 86 | 1008.2 |
| 20260507203603 | 10 | 324 | 8.0 | 16.1 | 0.00 | 0.00 | 0.00 | 85 | 1008.4 |
| 20260507203516 | 10 | 321 | 8.0 | 16.1 | 0.00 | 0.00 | 0.00 | 84 | 1008.3 |
| 20260507203503 | 10 | 321 | 8.0 | 17.7 | 0.00 | 0.00 | 0.00 | 84 | 1008.1 |
| 20260507203403 | 10 | 323 | 8.0 | 17.7 | 0.00 | 0.00 | 0.00 | 85 | 1008.1 |
| 20260507203216 | 10 | 321 | 8.0 | 17.7 | 0.00 | 0.00 | 0.00 | 85 | 1008.3 |
| 20260507203203 | 10 | 322 | 8.0 | 17.7 | 0.00 | 0.00 | 0.00 | 85 | 1008.4 |
| 20260507203103 | 10 | 321 | 8.0 | 17.7 | 0.00 | 0.00 | 0.00 | 85 | 1008.4 |
| 20260507202903 | 10 | 323 | 8.0 | 17.7 | 0.00 | 0.00 | 0.00 | 85 | 1008.4 |
| 20260507202803 | 10 | 324 | 8.0 | 17.7 | 0.00 | 0.00 | 0.00 | 85 | 1008.4 |
| 20260507202703 | 10 | 324 | 6.4 | 17.7 | 0.00 | 0.00 | 0.00 | 85 | 1008.5 |
| 20260507202503 | 10 | 331 | 6.4 | 17.7 | 0.00 | 0.00 | 0.00 | 84 | 1008.4 |
| 20260507202403 | 10 | 332 | 6.4 | 17.7 | 0.00 | 0.00 | 0.00 | 85 | 1008.5 |
| 20260507202306 | 10 | 332 | 6.4 | 17.7 | 0.00 | 0.00 | 0.00 | 84 | 1008.5 |
| 20260507202218 | 10 | 334 | 6.4 | 17.7 | 0.00 | 0.00 | 0.00 | 84 | 1008.6 |
| 20260507202203 | 10 | 335 | 6.4 | 17.7 | 0.00 | 0.00 | 0.00 | 84 | 1008.6 |
| 20260507202103 | 10 | 337 | 8.0 | 17.7 | 0.00 | 0.00 | 0.00 | 85 | 1008.4 |
| 20260507201903 | 10 | 336 | 8.0 | 17.7 | 0.00 | 0.00 | 0.00 | 85 | 1008.4 |
| 20260507201803 | 10 | 337 | 8.0 | 17.7 | 0.00 | 0.00 | 0.00 | 85 | 1008.4 |
| 20260507201703 | 10 | 337 | 8.0 | 17.7 | 0.00 | 0.00 | 0.00 | 85 | 1008.4 |
| 20260507201603 | 10 | 336 | 9.7 | 17.7 | 0.00 | 0.00 | 0.00 | 85 | 1008.3 |
| 20260507201503 | 10 | 337 | 9.7 | 17.7 | 0.00 | 0.00 | 0.00 | 85 | 1008.3 |
| 20260507201403 | 10 | 339 | 8.0 | 17.7 | 0.00 | 0.00 | 0.00 | 85 | 1008.3 |
| 20260507201303 | 10 | 341 | 8.0 | 17.7 | 0.00 | 0.00 | 0.00 | 85 | 1008.4 |
| 20260507201203 | 10 | 338 | 8.0 | 17.7 | 0.00 | 0.00 | 0.00 | 85 | 1008.1 |
| 20260507201103 | 10 | 335 | 8.0 | 17.7 | 0.00 | 0.00 | 0.00 | 85 | 1008.1 |
| 20260507201003 | 10 | 334 | 8.0 | 14.5 | 0.00 | 0.00 | 0.00 | 85 | 1008.3 |
| 20260507200903 | 10 | 333 | 6.4 | 14.5 | 0.00 | 0.00 | 0.00 | 85 | 1008.1 |
| 20260507200803 | 10 | 332 | 8.0 | 14.5 | 0.00 | 0.00 | 0.00 | 85 | 1008.1 |
| 20260507200717 | 10 | 331 | 8.0 | 12.9 | 0.00 | 0.00 | 0.00 | 85 | 1008.0 |
| 20260507200703 | 10 | 330 | 6.4 | 14.5 | 0.00 | 0.00 | 0.00 | 85 | 1008.0 |
| 20260507200603 | 10 | 330 | 6.4 | 16.1 | 0.00 | 0.00 | 0.00 | 85 | 1008.0 |
| 20260507200403 | 10 | 330 | 8.0 | 16.1 | 0.00 | 0.00 | 0.00 | 85 | 1007.9 |
| 20260507200303 | 10 | 327 | 8.0 | 16.1 | 0.00 | 0.00 | 0.00 | 85 | 1007.9 |
| 20260507200203 | 10 | 328 | 8.0 | 16.1 | 0.00 | 0.00 | 0.00 | 85 | 1007.8 |
| 20260507200103 | 10 | 329 | 8.0 | 16.1 | 0.00 | 0.00 | 0.00 | 85 | 1007.7 |
| 20260507200003 | 10 | 328 | 8.0 | 16.1 | 0.00 | 0.00 | 0.00 | 85 | 1007.7 |
| 20260507195903 | 10 | 329 | 8.0 | 16.1 | 0.00 | 0.00 | 0.00 | 85 | 1008.1 |
| 20260507195803 | 10 | 331 | 8.0 | 16.1 | 0.00 | 0.00 | 0.00 | 85 | 1007.8 |
| 20260507195703 | 10 | 330 | 8.0 | 16.1 | 0.00 | 0.00 | 0.00 | 85 | 1008.0 |
| 20260507195604 | 10 | 331 | 8.0 | 16.1 | 0.00 | 0.00 | 0.00 | 85 | 1008.0 |
| 20260507195503 | 10 | 329 | 8.0 | 17.7 | 0.00 | 0.00 | 0.00 | 85 | 1007.6 |
| 20260507195403 | 10 | 331 | 8.0 | 17.7 | 0.00 | 0.00 | 0.00 | 85 | 1007.9 |
| 20260507195317 | 10 | 334 | 8.0 | 17.7 | 0.00 | 0.00 | 0.00 | 85 | 1008.1 |
| 20260507195305 | 10 | 335 | 8.0 | 17.7 | 0.00 | 0.00 | 0.00 | 85 | 1008.1 |
| 20260507195203 | 10 | 336 | 8.0 | 17.7 | 0.00 | 0.00 | 0.00 | 85 | 1008.0 |
| 20260507195017 | 10 | 339 | 9.7 | 17.7 | 0.00 | 0.00 | 0.00 | 84 | 1007.8 |
| 20260507194903 | 10 | 339 | 9.7 | 17.7 | 0.00 | 0.00 | 0.00 | 84 | 1007.7 |
| 20260507194703 | 10 | 337 | 9.7 | 17.7 | 0.00 | 0.00 | 0.00 | 85 | 1008.0 |
| 20260507194619 | 10 | 338 | 9.7 | 17.7 | 0.00 | 0.00 | 0.00 | 85 | 1007.8 |
| 20260507194603 | 10 | 337 | 8.0 | 17.7 | 0.00 | 0.00 | 0.00 | 85 | 1007.8 |
| 20260507194503 | 10 | 334 | 9.7 | 17.7 | 0.00 | 0.00 | 0.00 | 85 | 1007.9 |
| 20260507194416 | 10 | 332 | 9.7 | 17.7 | 0.00 | 0.00 | 0.00 | 85 | 1008.1 |
| 20260507194319 | 10 | 331 | 8.0 | 16.1 | 0.00 | 0.00 | 0.00 | 85 | 1008.0 |
| 20260507194303 | 10 | 330 | 8.0 | 16.1 | 0.00 | 0.00 | 0.00 | 85 | 1008.0 |
| 20260507194019 | 10 | 329 | 8.0 | 14.5 | 0.00 | 0.00 | 0.00 | 86 | 1008.1 |
| 20260507194003 | 10 | 328 | 8.0 | 14.5 | 0.00 | 0.00 | 0.00 | 86 | 1008.0 |
| 20260507193903 | 10 | 328 | 8.0 | 14.5 | 0.00 | 0.00 | 0.00 | 86 | 1008.0 |
| 20260507193703 | 10 | 328 | 8.0 | 19.3 | 0.00 | 0.00 | 0.00 | 86 | 1008.0 |
| 20260507193603 | 10 | 328 | 8.0 | 19.3 | 0.00 | 0.00 | 0.00 | 86 | 1008.0 |
| 20260507193516 | 10 | 332 | 8.0 | 20.9 | 0.00 | 0.00 | 0.00 | 85 | 1008.1 |
| 20260507193503 | 10 | 334 | 8.0 | 20.9 | 0.00 | 0.00 | 0.00 | 85 | 1008.1 |
| 20260507193418 | 10 | 335 | 8.0 | 20.9 | 0.00 | 0.00 | 0.00 | 85 | 1008.0 |
| 20260507193403 | 10 | 335 | 8.0 | 20.9 | 0.00 | 0.00 | 0.00 | 85 | 1008.3 |
| 20260507193103 | 10 | 339 | 9.7 | 20.9 | 0.00 | 0.00 | 0.00 | 85 | 1007.9 |
| 20260507193003 | 10 | 338 | 9.7 | 20.9 | 0.00 | 0.00 | 0.00 | 85 | 1008.1 |
| 20260507192903 | 10 | 337 | 9.7 | 20.9 | 0.00 | 0.00 | 0.00 | 85 | 1008.1 |
| 20260507192803 | 10 | 337 | 9.7 | 20.9 | 0.00 | 0.00 | 0.00 | 85 | 1008.0 |
| 20260507192703 | 10 | 336 | 9.7 | 20.9 | 0.00 | 0.00 | 0.00 | 85 | 1007.9 |
| 20260507192603 | 10 | 333 | 9.7 | 20.9 | 0.00 | 0.00 | 0.00 | 85 | 1007.9 |
| 20260507192503 | 10 | 332 | 9.7 | 20.9 | 0.00 | 0.00 | 0.00 | 85 | 1007.8 |
| 20260507192403 | 10 | 333 | 9.7 | 20.9 | 0.00 | 0.00 | 0.00 | 85 | 1008.0 |
| 20260507192306 | 10 | 331 | 9.7 | 20.9 | 0.00 | 0.00 | 0.00 | 85 | 1007.8 |
| 20260507192203 | 10 | 331 | 9.7 | 20.9 | 0.00 | 0.00 | 0.00 | 85 | 1007.8 |
| 20260507192103 | 10 | 330 | 9.7 | 20.9 | 0.00 | 0.00 | 0.00 | 85 | 1007.8 |
| 20260507192003 | 10 | 330 | 9.7 | 20.9 | 0.00 | 0.00 | 0.00 | 86 | 1007.9 |
| 20260507191903 | 10 | 332 | 9.7 | 20.9 | 0.00 | 0.00 | 0.00 | 86 | 1007.9 |
| 20260507191803 | 10 | 331 | 8.0 | 20.9 | 0.00 | 0.00 | 0.00 | 86 | 1008.0 |
| 20260507191703 | 10 | 330 | 9.7 | 20.9 | 0.00 | 0.00 | 0.00 | 86 | 1008.0 |
| 20260507191603 | 10 | 335 | 8.0 | 17.7 | 0.00 | 0.00 | 0.00 | 85 | 1007.9 |
| 20260507191503 | 10 | 335 | 8.0 | 17.7 | 0.00 | 0.00 | 0.00 | 86 | 1007.9 |
| 20260507191403 | 10 | 336 | 8.0 | 17.7 | 0.00 | 0.00 | 0.00 | 86 | 1007.8 |
| 20260507191203 | 10 | 340 | 8.0 | 17.7 | 0.00 | 0.00 | 0.00 | 86 | 1008.0 |
| 20260507191103 | 10 | 338 | 8.0 | 17.7 | 0.00 | 0.00 | 0.00 | 86 | 1008.0 |
| 20260507191003 | 10 | 338 | 8.0 | 17.7 | 0.00 | 0.00 | 0.00 | 85 | 1008.1 |
| 20260507190903 | 10 | 337 | 8.0 | 17.7 | 0.00 | 0.00 | 0.00 | 85 | 1007.9 |
| 20260507190803 | 10 | 339 | 8.0 | 17.7 | 0.00 | 0.00 | 0.00 | 85 | 1007.9 |
| 20260507190703 | 10 | 338 | 6.4 | 17.7 | 0.00 | 0.00 | 0.00 | 85 | 1008.1 |
| 20260507190603 | 10 | 337 | 6.4 | 17.7 | 0.00 | 0.00 | 0.00 | 85 | 1008.1 |
| 20260507190503 | 10 | 337 | 8.0 | 17.7 | 0.00 | 0.00 | 0.00 | 85 | 1008.1 |
| 20260507190403 | 10 | 334 | 8.0 | 17.7 | 0.00 | 0.00 | 0.00 | 86 | 1007.9 |
| 20260507190303 | 10 | 333 | 8.0 | 17.7 | 0.00 | 0.00 | 0.00 | 86 | 1008.0 |
| 20260507190217 | 10 | 330 | 8.0 | 17.7 | 0.00 | 0.00 | 0.00 | 86 | 1008.0 |
| 20260507190203 | 10 | 329 | 8.0 | 17.7 | 0.00 | 0.00 | 0.00 | 86 | 1007.9 |
| 20260507190104 | 10 | 329 | 8.0 | 17.7 | 0.00 | 0.00 | 0.00 | 86 | 1007.9 |
| 20260507185903 | 10 | 329 | 8.0 | 17.7 | 0.00 | 0.00 | 0.00 | 86 | 1007.9 |
| 20260507185816 | 10 | 330 | 8.0 | 17.7 | 0.00 | 0.00 | 0.00 | 86 | 1007.9 |
| 20260507185803 | 10 | 330 | 8.0 | 19.3 | 0.00 | 0.00 | 0.00 | 86 | 1007.9 |
| 20260507185718 | 10 | 330 | 9.7 | 19.3 | 0.00 | 0.00 | 0.00 | 86 | 1007.8 |
| 20260507185403 | 10 | 333 | 9.7 | 22.5 | 0.00 | 0.00 | 0.00 | 86 | 1007.8 |
| 20260507185305 | 10 | 332 | 11.3 | 22.5 | 0.00 | 0.00 | 0.00 | 85 | 1007.8 |
| 20260507185203 | 10 | 336 | 11.3 | 22.5 | 0.00 | 0.00 | 0.00 | 86 | 1007.6 |
| 20260507185103 | 10 | 336 | 11.3 | 22.5 | 0.00 | 0.00 | 0.00 | 86 | 1007.4 |
| 20260507185003 | 10 | 336 | 12.9 | 22.5 | 0.00 | 0.00 | 0.00 | 86 | 1007.4 |
| 20260507184903 | 10 | 336 | 12.9 | 22.5 | 0.00 | 0.00 | 0.00 | 86 | 1007.7 |
| 20260507184803 | 10 | 334 | 12.9 | 22.5 | 0.00 | 0.00 | 0.00 | 86 | 1007.5 |
| 20260507184619 | 10 | 334 | 11.3 | 22.5 | 0.00 | 0.00 | 0.00 | 85 | 1007.6 |
| 20260507184603 | 10 | 333 | 11.3 | 22.5 | 0.00 | 0.00 | 0.00 | 85 | 1007.6 |
| 20260507184517 | 10 | 333 | 11.3 | 22.5 | 0.00 | 0.00 | 0.00 | 86 | 1007.5 |
| 20260507184505 | 10 | 332 | 11.3 | 22.5 | 0.00 | 0.00 | 0.00 | 86 | 1007.5 |
| 20260507184203 | 10 | 329 | 9.7 | 22.5 | 0.00 | 0.00 | 0.00 | 85 | 1007.6 |
| 20260507184103 | 10 | 328 | 9.7 | 22.5 | 0.00 | 0.00 | 0.00 | 86 | 1007.7 |
| 20260507184003 | 10 | 327 | 9.7 | 25.7 | 0.00 | 0.00 | 0.00 | 86 | 1007.5 |
| 20260507183903 | 10 | 325 | 8.0 | 27.4 | 0.00 | 0.00 | 0.00 | 86 | 1007.5 |
| 20260507183803 | 10 | 323 | 9.7 | 27.4 | 0.00 | 0.00 | 0.00 | 86 | 1007.6 |
| 20260507183703 | 10 | 321 | 9.7 | 27.4 | 0.00 | 0.00 | 0.00 | 86 | 1007.3 |
| 20260507183603 | 10 | 319 | 9.7 | 27.4 | 0.00 | 0.00 | 0.00 | 86 | 1007.3 |
| 20260507183503 | 10 | 317 | 9.7 | 27.4 | 0.00 | 0.00 | 0.00 | 86 | 1007.7 |
| 20260507183403 | 10 | 317 | 9.7 | 27.4 | 0.00 | 0.00 | 0.00 | 86 | 1007.3 |
| 20260507183303 | 10 | 317 | 9.7 | 27.4 | 0.00 | 0.00 | 0.00 | 86 | 1007.3 |
| 20260507183219 | 10 | 319 | 9.7 | 27.4 | 0.00 | 0.00 | 0.00 | 86 | 1007.4 |
| 20260507183203 | 10 | 320 | 9.7 | 27.4 | 0.00 | 0.00 | 0.00 | 86 | 1007.4 |
| 20260507183103 | 10 | 320 | 9.7 | 27.4 | 0.00 | 0.00 | 0.00 | 86 | 1007.4 |
| 20260507182919 | 10 | 322 | 11.3 | 27.4 | 0.00 | 0.00 | 0.00 | 86 | 1007.2 |
| 20260507182903 | 10 | 322 | 11.3 | 27.4 | 0.00 | 0.00 | 0.00 | 86 | 1007.3 |
| 20260507182817 | 10 | 324 | 11.3 | 27.4 | 0.00 | 0.00 | 0.00 | 86 | 1007.3 |
| 20260507182803 | 10 | 325 | 11.3 | 27.4 | 0.00 | 0.00 | 0.00 | 86 | 1007.3 |
| 20260507182503 | 10 | 333 | 9.7 | 25.7 | 0.00 | 0.00 | 0.00 | 87 | 1007.3 |
| 20260507182403 | 10 | 334 | 11.3 | 25.7 | 0.00 | 0.00 | 0.00 | 87 | 1007.3 |
| 20260507182306 | 10 | 333 | 11.3 | 25.7 | 0.00 | 0.00 | 0.00 | 86 | 1007.3 |
| 20260507182203 | 10 | 328 | 11.3 | 25.7 | 0.00 | 0.00 | 0.00 | 87 | 1007.4 |
| 20260507182103 | 10 | 325 | 11.3 | 25.7 | 0.00 | 0.00 | 0.00 | 87 | 1007.3 |
| 20260507182003 | 10 | 322 | 11.3 | 24.1 | 0.00 | 0.00 | 0.00 | 87 | 1007.3 |
| 20260507181903 | 10 | 322 | 11.3 | 24.1 | 0.00 | 0.00 | 0.00 | 87 | 1007.4 |
| 20260507181803 | 10 | 321 | 11.3 | 24.1 | 0.00 | 0.00 | 0.00 | 87 | 1007.3 |
| 20260507181703 | 10 | 320 | 9.7 | 24.1 | 0.00 | 0.00 | 0.00 | 86 | 1007.3 |
| 20260507181603 | 10 | 320 | 9.7 | 24.1 | 0.00 | 0.00 | 0.00 | 86 | 1007.5 |
| 20260507181503 | 10 | 320 | 9.7 | 24.1 | 0.00 | 0.00 | 0.00 | 86 | 1007.4 |
| 20260507181403 | 11 | 320 | 9.7 | 24.1 | 0.00 | 0.00 | 0.00 | 87 | 1007.5 |
| 20260507181203 | 11 | 327 | 9.7 | 24.1 | 0.00 | 0.00 | 0.00 | 87 | 1007.4 |
| 20260507181103 | 11 | 332 | 8.0 | 24.1 | 0.00 | 0.00 | 0.00 | 87 | 1007.4 |
| 20260507181016 | 11 | 335 | 8.0 | 16.1 | 0.00 | 0.00 | 0.00 | 87 | 1007.2 |
| 20260507181003 | 11 | 336 | 8.0 | 16.1 | 0.00 | 0.00 | 0.00 | 87 | 1007.2 |
| 20260507180903 | 11 | 337 | 8.0 | 19.3 | 0.00 | 0.00 | 0.00 | 87 | 1007.2 |
| 20260507180703 | 11 | 335 | 8.0 | 19.3 | 0.00 | 0.00 | 0.00 | 87 | 1007.2 |
| 20260507180603 | 11 | 335 | 8.0 | 19.3 | 0.00 | 0.00 | 0.00 | 87 | 1007.2 |
| 20260507180503 | 11 | 333 | 8.0 | 19.3 | 0.00 | 0.00 | 0.00 | 87 | 1007.3 |
| 20260507180403 | 11 | 333 | 8.0 | 19.3 | 0.00 | 0.00 | 0.00 | 87 | 1007.3 |
| 20260507180303 | 11 | 333 | 8.0 | 19.3 | 0.00 | 0.00 | 0.00 | 87 | 1007.5 |
| 20260507180203 | 11 | 331 | 8.0 | 24.1 | 0.00 | 0.00 | 0.00 | 87 | 1007.4 |
| 20260507180003 | 11 | 328 | 9.7 | 24.1 | 0.00 | 0.00 | 0.00 | 87 | 1007.5 |
| 20260507175903 | 11 | 327 | 9.7 | 24.1 | 0.00 | 0.00 | 0.00 | 87 | 1007.5 |
| 20260507175803 | 11 | 328 | 11.3 | 24.1 | 0.00 | 0.00 | 0.00 | 87 | 1007.3 |
| 20260507175703 | 11 | 326 | 11.3 | 24.1 | 0.00 | 0.00 | 0.00 | 87 | 1007.3 |
| 20260507175603 | 11 | 327 | 11.3 | 24.1 | 0.00 | 0.00 | 0.00 | 87 | 1007.3 |
| 20260507175503 | 11 | 329 | 11.3 | 24.1 | 0.00 | 0.00 | 0.00 | 87 | 1007.2 |
| 20260507175418 | 11 | 330 | 11.3 | 24.1 | 0.00 | 0.00 | 0.00 | 87 | 1007.2 |
| 20260507175306 | 11 | 330 | 12.9 | 24.1 | 0.00 | 0.00 | 0.00 | 88 | 1007.2 |
| 20260507175103 | 11 | 333 | 12.9 | 24.1 | 0.00 | 0.00 | 0.00 | 87 | 1007.3 |
| 20260507175003 | 11 | 334 | 12.9 | 22.5 | 0.00 | 0.00 | 0.00 | 87 | 1007.2 |
| 20260507174803 | 11 | 334 | 11.3 | 22.5 | 0.00 | 0.00 | 0.00 | 87 | 1007.1 |
| 20260507174703 | 11 | 336 | 11.3 | 20.9 | 0.00 | 0.00 | 0.00 | 87 | 1007.1 |
| 20260507174603 | 11 | 337 | 9.7 | 20.9 | 0.00 | 0.00 | 0.00 | 87 | 1007.1 |
| 20260507174503 | 11 | 336 | 9.7 | 20.9 | 0.00 | 0.00 | 0.00 | 87 | 1007.1 |
| 20260507174403 | 11 | 330 | 9.7 | 20.9 | 0.00 | 0.00 | 0.00 | 87 | 1007.1 |
| 20260507174303 | 11 | 328 | 8.0 | 17.7 | 0.00 | 0.00 | 0.00 | 87 | 1007.1 |
| 20260507174203 | 11 | 327 | 8.0 | 17.7 | 0.00 | 0.00 | 0.00 | 87 | 1007.1 |
| 20260507174103 | 11 | 324 | 8.0 | 17.7 | 0.00 | 0.00 | 0.00 | 87 | 1006.9 |
| 20260507174003 | 11 | 323 | 8.0 | 17.7 | 0.00 | 0.00 | 0.00 | 87 | 1006.9 |
| 20260507173917 | 11 | 323 | 8.0 | 17.7 | 0.00 | 0.00 | 0.00 | 87 | 1007.0 |
| 20260507173903 | 11 | 322 | 8.0 | 17.7 | 0.00 | 0.00 | 0.00 | 87 | 1006.8 |
| 20260507173603 | 11 | 319 | 8.0 | 17.7 | 0.00 | 0.00 | 0.00 | 87 | 1006.9 |
| 20260507173503 | 11 | 317 | 9.7 | 17.7 | 0.00 | 0.00 | 0.00 | 86 | 1006.8 |
| 20260507173303 | 11 | 323 | 9.7 | 29.0 | 0.00 | 0.00 | 0.00 | 87 | 1006.6 |
| 20260507173203 | 11 | 320 | 9.7 | 29.0 | 0.00 | 0.00 | 0.00 | 87 | 1006.8 |
| 20260507173117 | 11 | 320 | 9.7 | 29.0 | 0.00 | 0.00 | 0.00 | 86 | 1006.7 |
| 20260507173103 | 11 | 319 | 9.7 | 29.0 | 0.00 | 0.00 | 0.00 | 86 | 1006.7 |
| 20260507173004 | 11 | 319 | 9.7 | 29.0 | 0.00 | 0.00 | 0.00 | 86 | 1006.7 |
| 20260507172803 | 11 | 318 | 9.7 | 29.0 | 0.00 | 0.00 | 0.00 | 86 | 1006.9 |
| 20260507172703 | 11 | 317 | 9.7 | 29.0 | 0.00 | 0.00 | 0.00 | 86 | 1006.9 |
| 20260507172603 | 11 | 313 | 9.7 | 29.0 | 0.00 | 0.00 | 0.00 | 86 | 1006.9 |
| 20260507172403 | 11 | 307 | 11.3 | 29.0 | 0.00 | 0.00 | 0.00 | 86 | 1006.8 |
| 20260507172307 | 11 | 306 | 11.3 | 29.0 | 0.00 | 0.00 | 0.00 | 86 | 1006.6 |
| 20260507172203 | 11 | 307 | 11.3 | 29.0 | 0.00 | 0.00 | 0.00 | 86 | 1006.6 |
| 20260507172103 | 11 | 309 | 11.3 | 24.1 | 0.00 | 0.00 | 0.00 | 86 | 1006.8 |
| 20260507172003 | 11 | 309 | 11.3 | 24.1 | 0.00 | 0.00 | 0.00 | 85 | 1006.5 |
| 20260507171903 | 11 | 309 | 12.9 | 24.1 | 0.00 | 0.00 | 0.00 | 85 | 1006.5 |
| 20260507171803 | 11 | 308 | 12.9 | 24.1 | 0.00 | 0.00 | 0.00 | 85 | 1006.4 |
| 20260507171703 | 11 | 306 | 12.9 | 24.1 | 0.00 | 0.00 | 0.00 | 85 | 1006.4 |
| 20260507171603 | 11 | 307 | 12.9 | 24.1 | 0.00 | 0.00 | 0.00 | 85 | 1006.5 |
| 20260507171503 | 11 | 307 | 12.9 | 24.1 | 0.00 | 0.00 | 0.00 | 85 | 1006.5 |
| 20260507171403 | 11 | 308 | 12.9 | 24.1 | 0.00 | 0.00 | 0.00 | 85 | 1006.5 |
| 20260507171303 | 11 | 308 | 12.9 | 24.1 | 0.00 | 0.00 | 0.00 | 85 | 1006.5 |
| 20260507171103 | 11 | 303 | 11.3 | 22.5 | 0.00 | 0.00 | 0.00 | 85 | 1006.4 |
| 20260507171003 | 11 | 304 | 11.3 | 22.5 | 0.00 | 0.00 | 0.00 | 85 | 1006.2 |
| 20260507170903 | 11 | 305 | 11.3 | 22.5 | 0.00 | 0.00 | 0.00 | 85 | 1006.5 |
| 20260507170817 | 11 | 305 | 11.3 | 22.5 | 0.00 | 0.00 | 0.00 | 85 | 1006.4 |
| 20260507170803 | 11 | 304 | 11.3 | 22.5 | 0.00 | 0.00 | 0.00 | 85 | 1006.4 |
| 20260507170703 | 11 | 304 | 11.3 | 22.5 | 0.00 | 0.00 | 0.00 | 85 | 1006.4 |
| 20260507170503 | 11 | 304 | 11.3 | 20.9 | 0.00 | 0.00 | 0.00 | 85 | 1006.2 |
| 20260507170403 | 11 | 303 | 11.3 | 19.3 | 0.00 | 0.00 | 0.00 | 84 | 1006.4 |
| 20260507170303 | 11 | 301 | 11.3 | 22.5 | 0.00 | 0.00 | 0.00 | 85 | 1006.4 |
| 20260507170203 | 12 | 301 | 11.3 | 22.5 | 0.00 | 0.00 | 0.00 | 84 | 1006.1 |
| 20260507170103 | 12 | 300 | 12.9 | 22.5 | 0.00 | 0.00 | 0.00 | 84 | 1006.1 |
| 20260507170003 | 12 | 298 | 12.9 | 22.5 | 0.00 | 0.00 | 0.00 | 84 | 1006.2 |
| 20260507165916 | 12 | 295 | 12.9 | 22.5 | 0.00 | 0.00 | 0.00 | 84 | 1006.2 |
| 20260507165903 | 12 | 295 | 11.3 | 22.5 | 0.00 | 0.00 | 0.00 | 83 | 1006.2 |
| 20260507165803 | 12 | 294 | 11.3 | 22.5 | 0.00 | 0.00 | 0.00 | 83 | 1006.2 |
| 20260507165603 | 12 | 300 | 11.3 | 22.5 | 0.00 | 0.00 | 0.00 | 84 | 1006.5 |
| 20260507165503 | 12 | 302 | 11.3 | 22.5 | 0.00 | 0.00 | 0.00 | 84 | 1006.5 |
| 20260507165417 | 12 | 302 | 11.3 | 22.5 | 0.00 | 0.00 | 0.00 | 83 | 1006.4 |
| 20260507165403 | 12 | 303 | 11.3 | 22.5 | 0.00 | 0.00 | 0.00 | 83 | 1006.4 |
| 20260507165306 | 12 | 304 | 11.3 | 22.5 | 0.00 | 0.00 | 0.00 | 83 | 1006.4 |
| 20260507165117 | 12 | 309 | 11.3 | 22.5 | 0.00 | 0.00 | 0.00 | 83 | 1006.2 |
| 20260507165103 | 12 | 308 | 11.3 | 20.9 | 0.00 | 0.00 | 0.00 | 83 | 1006.4 |
| 20260507165003 | 12 | 309 | 11.3 | 24.1 | 0.00 | 0.00 | 0.00 | 83 | 1006.4 |
| 20260507164803 | 12 | 312 | 11.3 | 24.1 | 0.00 | 0.00 | 0.00 | 83 | 1006.1 |
| 20260507164703 | 12 | 311 | 11.3 | 24.1 | 0.00 | 0.00 | 0.00 | 83 | 1006.2 |
| 20260507164603 | 12 | 309 | 11.3 | 24.1 | 0.00 | 0.00 | 0.00 | 83 | 1006.2 |
| 20260507164503 | 12 | 306 | 11.3 | 24.1 | 0.00 | 0.00 | 0.00 | 83 | 1006.2 |
| 20260507164403 | 12 | 305 | 11.3 | 24.1 | 0.00 | 0.00 | 0.00 | 83 | 1006.0 |
| 20260507164303 | 12 | 304 | 12.9 | 24.1 | 0.00 | 0.00 | 0.00 | 83 | 1006.0 |
| 20260507164203 | 12 | 299 | 12.9 | 24.1 | 0.00 | 0.00 | 0.00 | 83 | 1006.2 |
| 20260507164103 | 12 | 298 | 12.9 | 24.1 | 0.00 | 0.00 | 0.00 | 82 | 1006.0 |
| 20260507164003 | 12 | 296 | 12.9 | 24.1 | 0.00 | 0.00 | 0.00 | 83 | 1006.0 |
| 20260507163903 | 12 | 294 | 12.9 | 24.1 | 0.00 | 0.00 | 0.00 | 82 | 1005.9 |
| 20260507163803 | 12 | 292 | 12.9 | 22.5 | 0.00 | 0.00 | 0.00 | 82 | 1006.2 |
| 20260507163703 | 12 | 291 | 12.9 | 22.5 | 0.00 | 0.00 | 0.00 | 82 | 1006.2 |
| 20260507163603 | 12 | 290 | 12.9 | 22.5 | 0.00 | 0.00 | 0.00 | 82 | 1005.9 |
| 20260507163503 | 12 | 290 | 12.9 | 22.5 | 0.00 | 0.00 | 0.00 | 83 | 1006.2 |
| 20260507163403 | 12 | 289 | 12.9 | 22.5 | 0.00 | 0.00 | 0.00 | 82 | 1006.2 |
| 20260507163303 | 12 | 285 | 12.9 | 22.5 | 0.00 | 0.00 | 0.00 | 82 | 1006.1 |
| 20260507163203 | 12 | 285 | 11.3 | 22.5 | 0.00 | 0.00 | 0.00 | 82 | 1006.1 |
| 20260507163103 | 12 | 285 | 11.3 | 22.5 | 0.00 | 0.00 | 0.00 | 82 | 1006.1 |
| 20260507163003 | 12 | 305 | 14.5 | 22.5 | 0.00 | 0.00 | 0.00 | 81 | 1006.0 |